GFSFLT2_500_temp_000.txt.gz
Temp
-16 -16 -16 -16 -16 -16 -16 -16 -16 -16 -16 -16 -17 -17 -17 -17 -17 -17 -17 -17 -18 -18 -17 -18 -18 -17 -18
-17 -17 -17 -17 -16 -16 -17 -17 -16 -16 -16 -17 -17 -17 -17 -17 -17 -17 -18 -18 -18 -17 -17 -18 -18 -18 -18
-18 -18 -18 -18 -18 -17 -17 -17 -16 -16 -16 -17 -17 -17 -17 -17 -17 -17 -17 -17 -17 -18 -17 -18 -18 -18 -18
-20 -19 -19 -19 -18 -18 -17 -17 -17 -17 -17 -17 -17 -17 -17 -17 -17 -17 -17 -17 -18 -17 -17 -18 -18 -18 -19
-20 -20 -20 -19 -19 -19 -18 -18 -17 -17 -17 -17 -17 -17 -17 -17 -16 -17 -17 -17 -17 -18 -18 -18 -18 -18 -19
-20 -20 -20 -20 -20 -19 -19 -19 -18 -18 -18 -17 -17 -17 -17 -17 -17 -17 -17 -17 -17 -18 -18 -18 -18 -18 -18
-21 -21 -20 -20 -20 -20 -20 -20 -19 -18 -18 -17 -17 -17 -17 -17 -17 -17 -17 -17 -17 -18 -18 -18 -18 -18 -19
-21 -21 -21 -20 -20 -20 -20 -20 -19 -19 -19 -18 -18 -18 -17 -17 -17 -17 -17 -17 -18 -18 -18 -18 -18 -19 -19
-22 -21 -21 -21 -21 -21 -21 -21 -20 -20 -19 -18 -18 -18 -18 -17 -17 -17 -17 -18 -18 -18 -18 -18 -19 -19 -20
-23 -23 -23 -22 -22 -22 -22 -21 -20 -20 -19 -19 -19 -18 -18 -17 -17 -17 -18 -18 -18 -18 -18 -19 -19 -19 -20
-24 -24 -24 -24 -23 -22 -22 -21 -20 -19 -19 -19 -18 -18 -18 -17 -18 -18 -18 -18 -18 -18 -19 -19 -19 -20 -21
-25 -25 -25 -24 -23 -21 -20 -20 -19 -19 -19 -18 -18 -18 -17 -18 -18 -18 -18 -18 -19 -19 -19 -19 -20 -20 -22
-25 -25 -24 -23 -22 -20 -20 -19 -19 -19 -18 -18 -18 -18 -18 -18 -18 -18 -19 -19 -19 -19 -19 -20 -21 -22 -23
-24 -23 -23 -22 -21 -20 -20 -19 -19 -18 -18 -18 -18 -18 -18 -19 -19 -19 -19 -19 -19 -20 -20 -21 -22 -22 -23
-23 -23 -22 -22 -21 -20 -19 -19 -18 -18 -18 -18 -19 -19 -19 -19 -19 -19 -19 -19 -20 -20 -21 -22 -23 -23 -24
-23 -22 -22 -21 -20 -20 -19 -19 -18 -18 -18 -19 -19 -19 -19 -19 -19 -19 -19 -20 -21 -21 -23 -24 -24 -24 -24
-22 -21 -21 -20 -20 -19 -19 -19 -19 -19 -19 -19 -19 -19 -19 -19 -19 -20 -20 -21 -23 -23 -24 -24 -24 -24 -24

GFSFLT2_500_temp_003.txt.gz
Temp
-19 -19 -18 -18 -18 -18 -18 -17 -17 -17 -17 -16 -16 -16 -16 -16 -17 -17 -17 -17 -17 -17 -17 -17 -17 -18 -18
-20 -19 -19 -19 -19 -19 -19 -18 -18 -17 -18 -18 -17 -17 -17 -16 -17 -17 -17 -17 -17 -17 -17 -17 -17 -18 -18
-21 -20 -20 -20 -19 -19 -19 -19 -19 -19 -18 -17 -17 -17 -17 -17 -16 -17 -17 -17 -17 -17 -17 -17 -17 -17 -18
-22 -21 -21 -21 -21 -20 -20 -20 -19 -19 -18 -18 -18 -18 -17 -17 -17 -17 -17 -17 -16 -17 -17 -17 -17 -18 -18
-23 -23 -22 -22 -22 -22 -22 -21 -20 -20 -19 -19 -18 -18 -17 -18 -17 -17 -17 -17 -17 -17 -17 -17 -17 -18 -18
-22 -22 -22 -22 -22 -22 -22 -21 -21 -20 -20 -19 -19 -18 -18 -18 -18 -18 -18 -18 -17 -18 -17 -17 -17 -17 -17
-22 -22 -22 -22 -22 -22 -22 -21 -21 -21 -20 -20 -20 -19 -19 -19 -18 -18 -18 -18 -17 -17 -17 -17 -17 -17 -18
-23 -23 -22 -22 -22 -22 -22 -22 -21 -21 -21 -20 -20 -20 -20 -19 -18 -19 -18 -18 -18 -17 -18 -17 -17 -17 -18
-24 -24 -24 -24 -24 -23 -22 -22 -21 -21 -21 -21 -21 -21 -20 -20 -19 -19 -18 -18 -18 -18 -17 -17 -18 -18 -18
-25 -25 -25 -25 -25 -25 -24 -23 -22 -21 -22 -22 -22 -21 -20 -20 -19 -19 -19 -18 -18 -18 -17 -17 -18 -18 -19
-25 -25 -26 -26 -26 -26 -25 -24 -23 -22 -22 -21 -22 -21 -20 -19 -19 -19 -18 -18 -18 -18 -18 -18 -19 -19 -19
-25 -25 -26 -26 -26 -26 -25 -24 -23 -22 -22 -21 -20 -20 -19 -19 -19 -19 -18 -18 -18 -18 -19 -19 -19 -19 -19
-25 -26 -26 -26 -26 -25 -24 -23 -22 -21 -21 -20 -19 -19 -19 -19 -19 -19 -18 -18 -19 -19 -19 -19 -19 -19 -19
-26 -26 -26 -25 -25 -24 -23 -22 -21 -21 -20 -20 -19 -19 -19 -19 -19 -18 -19 -19 -19 -19 -19 -19 -19 -19 -20
-26 -25 -25 -24 -23 -22 -21 -21 -21 -20 -19 -19 -19 -19 -19 -19 -19 -19 -19 -20 -19 -19 -19 -19 -19 -20 -21
-25 -25 -24 -23 -22 -21 -21 -21 -20 -20 -20 -20 -19 -19 -19 -19 -20 -20 -20 -19 -19 -19 -20 -20 -21 -22 -23
-24 -23 -23 -22 -21 -21 -21 -20 -20 -20 -20 -20 -20 -20 -20 -20 -20 -20 -20 -20 -20 -20 -21 -22 -22 -23 -23

GFSFLT2_500_temp_006.txt.gz
Temp
-23 -23 -22 -22 -21 -21 -20 -20 -19 -19 -19 -19 -19 -19 -18 -17 -16 -16 -16 -16 -16 -17 -17 -17 -17 -17 -17
-23 -23 -23 -23 -23 -22 -22 -21 -20 -20 -20 -20 -19 -19 -19 -18 -18 -17 -17 -17 -16 -17 -17 -17 -17 -17 -17
-23 -24 -23 -23 -23 -23 -22 -22 -21 -21 -20 -20 -20 -19 -19 -19 -18 -18 -18 -17 -17 -17 -17 -17 -17 -17 -17
-24 -23 -23 -23 -23 -23 -23 -22 -22 -22 -21 -21 -20 -20 -19 -19 -19 -19 -18 -18 -17 -17 -17 -17 -17 -17 -17
-23 -23 -23 -23 -23 -23 -23 -22 -22 -22 -22 -21 -21 -21 -20 -20 -19 -19 -18 -18 -18 -18 -17 -17 -17 -17 -17
-23 -23 -23 -23 -23 -23 -23 -22 -22 -22 -22 -22 -22 -21 -21 -21 -20 -19 -19 -18 -18 -18 -18 -17 -17 -17 -17
-23 -23 -22 -23 -23 -23 -23 -23 -22 -22 -22 -22 -22 -21 -22 -22 -21 -20 -19 -19 -19 -19 -18 -18 -18 -18 -18
-24 -23 -23 -23 -23 -23 -24 -24 -23 -22 -22 -22 -22 -22 -21 -21 -21 -20 -19 -19 -19 -19 -19 -18 -18 -18 -18
-25 -24 -25 -24 -24 -24 -25 -24 -23 -23 -23 -22 -22 -22 -21 -21 -21 -21 -20 -20 -20 -19 -19 -18 -18 -18 -18
-27 -26 -25 -25 -25 -25 -25 -25 -24 -23 -24 -23 -22 -22 -21 -21 -21 -21 -20 -20 -20 -19 -19 -19 -18 -18 -18
-28 -27 -26 -26 -26 -27 -26 -25 -24 -24 -24 -24 -23 -22 -22 -22 -22 -21 -20 -20 -19 -19 -19 -18 -18 -18 -18
-28 -27 -27 -28 -27 -26 -26 -26 -25 -25 -25 -24 -23 -23 -22 -22 -22 -21 -20 -21 -19 -19 -19 -18 -18 -18 -18
-28 -28 -27 -27 -27 -27 -27 -26 -26 -25 -24 -23 -22 -22 -22 -22 -21 -20 -20 -19 -19 -19 -19 -19 -18 -19 -19
-27 -27 -27 -27 -27 -26 -26 -25 -24 -23 -22 -21 -21 -21 -21 -21 -20 -19 -19 -19 -19 -19 -19 -19 -19 -19 -19
-27 -27 -26 -26 -25 -24 -24 -23 -22 -22 -21 -21 -20 -20 -20 -19 -19 -19 -19 -19 -20 -20 -20 -20 -20 -20 -20
-27 -26 -25 -24 -24 -23 -22 -22 -21 -21 -21 -20 -20 -20 -20 -19 -20 -20 -20 -20 -20 -20 -20 -20 -20 -20 -20
-26 -25 -24 -23 -22 -22 -22 -22 -21 -21 -22 -21 -21 -21 -20 -20 -20 -20 -20 -20 -20 -20 -20 -20 -20 -20 -21

GFSFLT2_500_temp_009.txt.gz
Temp
-24 -23 -23 -23 -23 -23 -23 -23 -23 -23 -22 -22 -22 -21 -20 -19 -18 -18 -18 -17 -17 -16 -17 -16 -16 -16 -16
-24 -24 -24 -24 -24 -24 -24 -23 -23 -23 -23 -23 -22 -22 -21 -20 -20 -19 -18 -18 -17 -17 -16 -16 -16 -16 -16
-24 -24 -24 -24 -24 -24 -24 -24 -23 -23 -23 -23 -23 -22 -23 -22 -21 -20 -19 -19 -18 -17 -17 -17 -17 -16 -16
-24 -24 -24 -24 -24 -24 -23 -23 -23 -23 -23 -23 -23 -22 -22 -23 -21 -21 -21 -20 -19 -18 -18 -18 -17 -17 -17
-25 -25 -24 -24 -24 -23 -23 -23 -23 -23 -23 -23 -23 -22 -22 -23 -22 -22 -20 -20 -20 -19 -18 -18 -19 -17 -17
-27 -27 -26 -25 -25 -24 -23 -23 -22 -23 -23 -23 -23 -23 -23 -23 -23 -22 -21 -20 -21 -20 -19 -19 -19 -18 -18
-30 -30 -28 -28 -27 -25 -24 -22 -22 -23 -23 -22 -23 -23 -23 -23 -23 -23 -22 -21 -20 -19 -20 -20 -20 -19 -18
-31 -31 -31 -30 -28 -27 -25 -24 -24 -24 -23 -23 -24 -23 -23 -23 -23 -22 -22 -21 -21 -20 -21 -20 -20 -19 -18
-31 -31 -30 -30 -29 -27 -27 -25 -25 -25 -25 -24 -24 -23 -23 -23 -23 -23 -22 -22 -22 -21 -21 -21 -20 -20 -19
-30 -31 -30 -30 -28 -28 -28 -27 -26 -26 -26 -26 -25 -24 -23 -23 -23 -23 -23 -22 -22 -22 -22 -21 -20 -20 -19
-29 -30 -30 -29 -29 -29 -29 -28 -27 -26 -26 -26 -25 -24 -23 -23 -23 -22 -22 -22 -22 -21 -21 -21 -20 -19 -19
-29 -29 -29 -30 -29 -29 -29 -27 -26 -26 -26 -25 -25 -24 -23 -23 -22 -22 -22 -22 -21 -21 -21 -20 -20 -19 -19
-29 -30 -30 -29 -29 -28 -28 -27 -26 -26 -26 -25 -25 -24 -24 -23 -22 -22 -22 -22 -22 -21 -21 -20 -20 -20 -19
-29 -29 -28 -28 -27 -27 -27 -26 -25 -25 -25 -24 -24 -24 -23 -23 -22 -22 -22 -22 -22 -22 -20 -20 -20 -20 -19
-28 -27 -27 -27 -26 -26 -25 -25 -24 -23 -23 -23 -22 -22 -22 -22 -22 -22 -22 -22 -21 -21 -20 -20 -20 -20 -19
-26 -26 -25 -25 -25 -24 -23 -23 -23 -22 -22 -21 -20 -21 -21 -21 -21 -21 -21 -20 -20 -20 -20 -20 -20 -20 -20
-25 -24 -24 -23 -23 -23 -22 -22 -22 -22 -22 -22 -21 -20 -20 -20 -20 -20 -20 -20 -20 -20 -20 -20 -20 -21 -21

GFSFLT2_500_temp_012.txt.gz
Temp
-21 -21 -23 -23 -24 -24 -24 -24 -24 -24 -24 -24 -24 -24 -23 -23 -22 -21 -20 -19 -19 -17 -17 -16 -16 -15 -16
-23 -24 -24 -25 -25 -25 -25 -25 -24 -24 -24 -24 -24 -23 -23 -23 -23 -23 -22 -21 -20 -19 -18 -18 -17 -16 -16
-25 -25 -25 -25 -26 -26 -26 -25 -25 -25 -24 -24 -24 -23 -23 -23 -23 -23 -23 -22 -22 -21 -19 -19 -18 -18 -17
-25 -26 -26 -27 -28 -28 -27 -26 -26 -25 -24 -24 -24 -24 -23 -23 -23 -23 -23 -23 -23 -22 -21 -19 -19 -18 -17
-26 -26 -27 -28 -29 -30 -30 -29 -27 -26 -25 -25 -24 -24 -24 -23 -23 -23 -23 -23 -23 -23 -22 -21 -20 -19 -18
-27 -27 -28 -29 -29 -30 -30 -31 -29 -29 -27 -25 -24 -24 -24 -23 -23 -23 -23 -23 -23 -23 -23 -21 -21 -19 -19
-27 -28 -28 -29 -29 -30 -30 -31 -30 -30 -28 -25 -26 -24 -24 -23 -23 -23 -23 -22 -23 -23 -22 -21 -21 -20 -19
-28 -29 -29 -29 -29 -29 -30 -30 -30 -29 -28 -27 -26 -24 -24 -23 -23 -23 -23 -22 -22 -23 -22 -22 -21 -21 -20
-30 -29 -29 -29 -29 -29 -30 -30 -30 -30 -30 -29 -27 -25 -25 -25 -24 -24 -24 -23 -23 -23 -23 -22 -21 -21 -20
-29 -29 -29 -29 -29 -30 -30 -30 -29 -29 -29 -28 -27 -27 -27 -26 -25 -25 -24 -23 -23 -23 -23 -22 -21 -21 -21
-29 -29 -29 -29 -30 -30 -30 -29 -28 -29 -29 -28 -27 -27 -27 -27 -27 -25 -24 -23 -23 -23 -23 -22 -21 -21 -21
-29 -29 -30 -30 -30 -30 -29 -29 -28 -28 -28 -27 -27 -27 -27 -27 -26 -25 -24 -23 -23 -23 -23 -23 -22 -22 -22
-29 -29 -29 -29 -29 -28 -28 -28 -28 -27 -27 -27 -27 -27 -26 -26 -26 -24 -24 -23 -23 -22 -22 -22 -22 -22 -21
-28 -28 -28 -28 -27 -27 -27 -27 -26 -26 -25 -25 -26 -26 -26 -25 -25 -24 -23 -23 -23 -22 -22 -22 -22 -21 -21
-27 -27 -26 -26 -26 -25 -25 -25 -24 -24 -24 -24 -24 -25 -24 -25 -24 -23 -23 -23 -23 -23 -23 -23 -22 -21 -21
-26 -25 -25 -24 -24 -24 -24 -24 -24 -24 -24 -23 -22 -23 -24 -24 -24 -23 -23 -23 -23 -23 -23 -22 -23 -22 -21
-24 -24 -23 -23 -23 -23 -23 -23 -23 -23 -23 -22 -22 -22 -22 -22 -22 -22 -22 -22 -22 -22 -22 -22 -22 -21 -21

GFSFLT2_500_temp_015.txt.gz
Temp
-21 -21 -21 -22 -23 -24 -25 -25 -25 -24 -24 -24 -24 -25 -25 -25 -25 -24 -24 -23 -22 -21 -20 -19 -18 -17 -17
-22 -23 -24 -25 -25 -25 -25 -25 -25 -25 -25 -25 -25 -25 -25 -25 -25 -25 -24 -24 -23 -23 -22 -21 -20 -18 -17
-24 -25 -25 -26 -26 -26 -26 -26 -26 -26 -26 -27 -27 -27 -25 -25 -25 -25 -25 -24 -24 -24 -23 -22 -21 -21 -19
-26 -26 -26 -27 -27 -27 -26 -26 -26 -27 -28 -29 -29 -28 -27 -25 -25 -25 -25 -24 -24 -24 -24 -23 -23 -22 -22
-26 -26 -27 -28 -28 -27 -27 -27 -27 -29 -30 -30 -30 -30 -28 -26 -25 -25 -24 -24 -24 -23 -23 -23 -23 -22 -22
-27 -27 -28 -28 -28 -27 -27 -27 -28 -31 -30 -30 -31 -30 -29 -27 -25 -25 -24 -24 -23 -23 -23 -23 -23 -23 -23
-28 -28 -28 -29 -28 -27 -28 -29 -29 -30 -29 -30 -31 -30 -29 -27 -26 -25 -24 -24 -23 -23 -23 -23 -23 -23 -23
-29 -28 -29 -29 -28 -28 -29 -29 -30 -30 -30 -31 -31 -31 -30 -27 -26 -24 -24 -24 -23 -23 -23 -23 -23 -23 -23
-29 -29 -29 -29 -29 -28 -29 -29 -30 -30 -30 -29 -30 -29 -29 -28 -26 -25 -24 -23 -23 -23 -23 -23 -23 -23 -23
-29 -29 -29 -29 -29 -29 -29 -30 -30 -30 -29 -29 -29 -29 -28 -28 -26 -25 -24 -23 -23 -23 -22 -22 -22 -22 -22
-28 -28 -29 -29 -29 -29 -29 -29 -29 -29 -29 -28 -28 -28 -28 -28 -27 -26 -25 -25 -24 -24 -24 -23 -23 -22 -22
-28 -28 -28 -29 -29 -28 -28 -28 -28 -27 -28 -28 -28 -28 -28 -27 -27 -27 -26 -25 -25 -24 -24 -23 -23 -23 -22
-28 -28 -28 -28 -28 -27 -27 -26 -26 -26 -27 -27 -27 -27 -27 -27 -27 -27 -26 -25 -24 -24 -23 -23 -23 -23 -22
-27 -27 -26 -26 -26 -25 -25 -25 -25 -25 -25 -26 -26 -27 -27 -27 -26 -26 -25 -25 -24 -23 -24 -23 -24 -23 -22
-26 -25 -25 -24 -24 -24 -24 -24 -24 -24 -24 -24 -25 -26 -26 -26 -26 -25 -25 -25 -25 -24 -24 -24 -23 -23 -23
-25 -24 -24 -24 -24 -24 -24 -24 -24 -25 -24 -24 -24 -25 -25 -25 -25 -25 -25 -25 -24 -24 -24 -24 -24 -24 -23
-25 -25 -24 -24 -24 -24 -24 -24 -24 -24 -24 -23 -23 -23 -24 -24 -25 -26 -25 -25 -25 -25 -24 -23 -23 -23 -22

GFSFLT2_500_temp_018.txt.gz
Temp
-20 -21 -22 -23 -23 -23 -23 -24 -24 -25 -26 -26 -26 -25 -25 -25 -25 -25 -25 -25 -25 -24 -23 -23 -23 -22 -19
-22 -24 -24 -24 -24 -24 -25 -25 -26 -26 -26 -26 -27 -26 -25 -25 -25 -25 -25 -25 -26 -25 -24 -23 -24 -23 -22
-25 -25 -24 -25 -25 -26 -26 -26 -26 -26 -27 -28 -27 -26 -27 -27 -26 -26 -26 -26 -26 -26 -25 -24 -24 -24 -24
-25 -25 -26 -27 -27 -27 -26 -27 -27 -27 -28 -28 -27 -27 -27 -27 -27 -27 -28 -27 -27 -26 -25 -25 -25 -25 -24
-25 -26 -27 -27 -27 -27 -27 -27 -27 -29 -28 -28 -28 -28 -29 -29 -29 -29 -29 -29 -27 -26 -26 -25 -25 -25 -24
-27 -27 -27 -28 -28 -28 -28 -28 -27 -30 -28 -28 -29 -30 -30 -30 -30 -31 -31 -30 -28 -26 -26 -25 -25 -25 -25
-27 -28 -28 -28 -28 -28 -28 -29 -29 -29 -28 -29 -30 -31 -31 -31 -31 -31 -31 -30 -28 -27 -26 -25 -25 -25 -25
-28 -28 -28 -28 -28 -28 -29 -29 -29 -30 -30 -30 -30 -30 -31 -31 -31 -31 -30 -29 -27 -26 -25 -25 -25 -25 -24
-28 -28 -28 -28 -28 -28 -29 -29 -29 -30 -31 -29 -30 -30 -30 -30 -30 -29 -29 -27 -26 -25 -25 -25 -24 -24 -24
-28 -28 -28 -28 -28 -28 -28 -28 -29 -30 -30 -29 -29 -29 -29 -29 -29 -29 -29 -27 -26 -24 -24 -24 -24 -24 -23
-28 -28 -28 -28 -28 -27 -27 -27 -27 -28 -29 -29 -29 -29 -28 -28 -28 -28 -28 -28 -26 -24 -24 -24 -24 -23 -23
-28 -28 -27 -27 -26 -26 -26 -26 -26 -27 -27 -28 -28 -28 -28 -28 -28 -28 -27 -27 -27 -26 -25 -23 -23 -23 -23
-27 -26 -25 -25 -25 -25 -25 -25 -25 -26 -26 -26 -27 -27 -28 -28 -28 -27 -27 -27 -26 -26 -25 -25 -24 -23 -23
-26 -25 -25 -24 -24 -24 -25 -25 -25 -25 -25 -25 -26 -27 -27 -27 -27 -28 -27 -27 -26 -25 -25 -24 -24 -24 -23
-26 -25 -25 -25 -25 -25 -25 -25 -25 -25 -25 -25 -25 -26 -26 -26 -26 -26 -26 -26 -25 -25 -24 -24 -24 -24 -23
-26 -26 -26 -25 -25 -25 -25 -25 -25 -25 -24 -24 -25 -25 -25 -26 -26 -26 -26 -25 -25 -25 -25 -24 -24 -23 -23
-26 -26 -25 -25 -25 -25 -25 -24 -25 -24 -24 -23 -24 -25 -25 -25 -25 -25 -25 -25 -25 -25 -25 -24 -24 -23 -23

GFSFLT2_500_temp_021.txt.gz
Temp
-19 -20 -20 -21 -22 -23 -25 -25 -25 -25 -26 -26 -26 -26 -26 -25 -26 -26 -25 -25 -25 -25 -25 -24 -23 -22 -22
-21 -22 -23 -25 -25 -25 -25 -25 -26 -26 -27 -27 -27 -27 -28 -27 -26 -26 -26 -26 -26 -26 -25 -25 -24 -23 -23
-24 -25 -25 -25 -25 -25 -25 -26 -27 -27 -28 -28 -28 -28 -28 -28 -27 -26 -26 -26 -26 -26 -25 -25 -25 -24 -23
-26 -26 -25 -26 -26 -26 -26 -27 -27 -28 -29 -29 -29 -28 -28 -27 -27 -27 -27 -27 -27 -26 -26 -26 -26 -25 -24
-26 -26 -26 -26 -27 -27 -27 -27 -28 -28 -27 -28 -28 -28 -28 -28 -28 -28 -28 -28 -28 -28 -27 -27 -26 -25 -24
-26 -26 -27 -27 -27 -27 -28 -28 -28 -29 -28 -29 -29 -29 -29 -30 -30 -30 -30 -30 -30 -29 -29 -28 -27 -26 -25
-28 -28 -27 -27 -27 -27 -28 -29 -29 -30 -29 -29 -30 -30 -30 -30 -30 -30 -30 -30 -30 -31 -31 -30 -29 -27 -26
-28 -27 -27 -27 -27 -27 -27 -28 -29 -30 -29 -28 -31 -30 -30 -30 -30 -29 -29 -30 -30 -31 -31 -30 -29 -27 -26
-28 -28 -27 -27 -27 -27 -27 -27 -27 -28 -29 -28 -29 -29 -30 -30 -30 -29 -29 -30 -30 -30 -29 -29 -28 -27 -26
-28 -28 -27 -27 -27 -27 -26 -26 -26 -27 -27 -28 -28 -28 -29 -29 -29 -29 -29 -29 -29 -28 -28 -27 -26 -26 -26
-27 -27 -27 -26 -26 -26 -25 -25 -25 -26 -26 -27 -28 -28 -28 -28 -28 -29 -28 -28 -28 -28 -27 -26 -26 -26 -26
-27 -27 -26 -26 -25 -25 -25 -25 -25 -25 -26 -26 -27 -27 -28 -28 -28 -28 -28 -27 -27 -27 -26 -25 -25 -25 -25
-27 -26 -26 -25 -25 -25 -26 -26 -26 -26 -26 -26 -26 -27 -27 -28 -28 -28 -28 -27 -27 -26 -26 -25 -25 -25 -25
-27 -26 -26 -26 -26 -26 -25 -26 -26 -26 -26 -26 -26 -27 -27 -28 -28 -27 -27 -27 -27 -26 -26 -25 -24 -24 -24
-27 -26 -26 -26 -25 -25 -25 -26 -26 -25 -25 -26 -26 -27 -27 -27 -28 -28 -28 -27 -27 -26 -25 -25 -25 -23 -23
-26 -26 -26 -26 -25 -25 -25 -25 -25 -25 -25 -25 -26 -26 -26 -27 -27 -27 -26 -26 -26 -26 -26 -25 -25 -24 -24
-26 -26 -25 -25 -25 -25 -25 -25 -25 -25 -24 -25 -26 -26 -26 -26 -26 -26 -26 -26 -25 -25 -25 -24 -24 -24 -23

GFSFLT2_500_temp_024.txt.gz
Temp
-16 -17 -18 -19 -21 -22 -23 -24 -25 -25 -26 -26 -25 -25 -25 -25 -25 -25 -25 -25 -25 -25 -24 -24 -24 -24 -23
-18 -21 -22 -23 -24 -25 -26 -26 -26 -26 -26 -26 -27 -27 -27 -26 -26 -26 -26 -26 -26 -26 -26 -26 -26 -25 -25
-23 -24 -25 -26 -26 -26 -25 -25 -26 -27 -27 -27 -26 -26 -26 -27 -27 -27 -27 -27 -27 -27 -26 -26 -26 -26 -25
-26 -26 -26 -26 -26 -25 -25 -27 -27 -27 -27 -27 -27 -27 -27 -27 -27 -28 -27 -28 -28 -28 -27 -27 -26 -26 -26
-26 -26 -27 -27 -27 -27 -27 -27 -28 -28 -28 -28 -28 -28 -28 -28 -28 -28 -28 -29 -29 -28 -28 -28 -27 -27 -26
-28 -28 -28 -28 -27 -27 -27 -27 -27 -29 -29 -29 -28 -29 -29 -29 -29 -30 -30 -30 -29 -30 -30 -30 -29 -28 -27
-29 -28 -27 -27 -27 -27 -27 -27 -27 -28 -27 -28 -28 -29 -28 -29 -30 -29 -29 -29 -30 -29 -30 -30 -30 -29 -28
-28 -28 -27 -27 -27 -27 -26 -26 -26 -27 -25 -26 -28 -28 -28 -29 -30 -29 -29 -30 -30 -30 -30 -30 -30 -30 -29
-28 -27 -27 -27 -27 -25 -25 -25 -25 -26 -25 -26 -26 -27 -28 -28 -29 -29 -29 -29 -29 -30 -29 -30 -30 -30 -30
-28 -27 -27 -27 -26 -25 -25 -25 -25 -26 -26 -26 -26 -26 -28 -28 -28 -29 -28 -28 -28 -29 -29 -29 -29 -29 -29
-27 -27 -27 -26 -27 -26 -26 -26 -26 -26 -26 -26 -26 -27 -28 -28 -28 -28 -28 -28 -28 -28 -29 -29 -28 -29 -29
-27 -27 -27 -27 -27 -26 -26 -26 -26 -26 -26 -26 -27 -27 -28 -28 -28 -28 -28 -28 -27 -27 -27 -28 -27 -27 -27
-27 -27 -26 -26 -26 -26 -26 -26 -26 -26 -26 -26 -27 -28 -28 -28 -28 -28 -28 -27 -27 -27 -27 -27 -27 -27 -27
-27 -26 -26 -26 -26 -26 -26 -26 -26 -26 -26 -27 -28 -28 -28 -28 -28 -27 -27 -26 -26 -27 -26 -26 -26 -26 -26
-26 -26 -26 -26 -26 -26 -26 -26 -26 -26 -26 -27 -27 -27 -28 -28 -28 -27 -27 -26 -26 -26 -26 -25 -25 -25 -25
-26 -26 -26 -26 -25 -25 -25 -25 -26 -26 -26 -26 -26 -27 -27 -27 -27 -27 -26 -26 -26 -25 -26 -25 -25 -25 -25
-26 -26 -26 -25 -25 -25 -25 -25 -26 -26 -26 -26 -26 -26 -26 -26 -26 -26 -26 -26 -25 -25 -25 -25 -24 -24 -24

GFSFLT2_500_temp_027.txt.gz
Temp
-17 -17 -17 -18 -19 -21 -22 -23 -24 -24 -25 -25 -25 -25 -25 -25 -24 -24 -24 -24 -24 -24 -24 -24 -24 -24 -24
-18 -19 -21 -23 -23 -24 -24 -24 -25 -26 -26 -26 -26 -26 -25 -25 -26 -26 -26 -26 -26 -26 -26 -26 -26 -26 -25
-22 -23 -24 -25 -25 -26 -26 -27 -27 -28 -28 -28 -28 -27 -27 -27 -27 -27 -27 -26 -27 -27 -27 -27 -27 -27 -27
-24 -25 -26 -27 -27 -27 -27 -28 -28 -28 -28 -28 -28 -28 -27 -27 -27 -27 -27 -27 -27 -27 -27 -27 -27 -27 -27
-26 -27 -27 -27 -27 -27 -27 -27 -28 -28 -28 -28 -28 -28 -28 -28 -27 -27 -28 -27 -27 -27 -28 -28 -28 -28 -28
-27 -27 -27 -27 -27 -27 -27 -27 -27 -28 -26 -27 -27 -27 -27 -27 -28 -28 -28 -28 -29 -29 -30 -30 -30 -29 -30
-26 -27 -26 -27 -27 -27 -27 -26 -26 -26 -25 -26 -26 -26 -26 -27 -28 -28 -28 -28 -29 -29 -29 -29 -30 -30 -30
-27 -27 -27 -27 -26 -26 -25 -26 -26 -26 -24 -26 -25 -26 -26 -27 -27 -28 -28 -28 -29 -29 -29 -29 -29 -29 -30
-27 -27 -27 -27 -26 -26 -26 -26 -27 -27 -26 -26 -26 -26 -27 -27 -27 -28 -28 -28 -28 -28 -28 -29 -29 -29 -29
-27 -27 -27 -27 -26 -26 -26 -26 -26 -27 -26 -26 -26 -26 -27 -27 -28 -28 -28 -28 -28 -28 -27 -28 -28 -29 -29
-27 -27 -27 -27 -27 -26 -26 -26 -26 -26 -26 -26 -26 -27 -27 -28 -28 -28 -29 -28 -28 -28 -27 -28 -28 -28 -29
-27 -26 -27 -26 -27 -26 -26 -26 -26 -26 -26 -27 -27 -28 -28 -28 -28 -28 -27 -27 -27 -27 -27 -27 -28 -29 -28
-27 -26 -26 -26 -26 -26 -26 -26 -26 -26 -26 -26 -27 -28 -28 -29 -28 -28 -27 -27 -27 -27 -26 -27 -27 -28 -28
-26 -26 -26 -26 -26 -26 -26 -26 -26 -26 -26 -26 -27 -27 -28 -28 -28 -27 -27 -26 -27 -27 -26 -26 -27 -27 -27
-26 -26 -25 -26 -25 -25 -25 -26 -25 -26 -26 -26 -27 -27 -27 -27 -27 -27 -26 -26 -26 -26 -26 -26 -26 -26 -26
-27 -26 -26 -26 -26 -26 -25 -25 -25 -26 -26 -27 -26 -27 -27 -27 -27 -27 -26 -25 -26 -26 -25 -26 -26 -26 -26
-28 -27 -27 -27 -27 -27 -26 -26 -25 -26 -26 -26 -26 -26 -26 -26 -26 -26 -26 -25 -25 -26 -25 -25 -26 -26 -26

GFSFLT2_500_temp_030.txt.gz
Temp
-17 -17 -17 -17 -18 -19 -21 -22 -23 -25 -26 -26 -26 -26 -26 -25 -25 -25 -25 -25 -24 -25 -25 -25 -25 -25 -24
-17 -17 -18 -20 -22 -23 -24 -26 -27 -27 -27 -27 -27 -27 -27 -27 -27 -27 -27 -27 -26 -26 -26 -26 -25 -25 -24
-18 -20 -22 -23 -24 -26 -26 -27 -27 -27 -27 -27 -27 -27 -27 -27 -27 -27 -27 -27 -27 -27 -27 -26 -26 -25 -25
-22 -23 -25 -25 -26 -26 -26 -26 -27 -27 -26 -26 -26 -26 -26 -26 -26 -27 -27 -27 -28 -28 -28 -27 -26 -26 -26
-24 -25 -26 -26 -26 -26 -26 -26 -27 -25 -25 -26 -25 -25 -25 -25 -26 -26 -26 -27 -27 -28 -28 -27 -27 -27 -27
-26 -26 -25 -26 -26 -26 -25 -26 -26 -25 -25 -27 -25 -26 -26 -26 -26 -26 -26 -27 -27 -28 -28 -28 -29 -29 -29
-25 -25 -26 -26 -26 -26 -26 -26 -26 -25 -25 -27 -26 -26 -26 -26 -26 -26 -27 -27 -28 -28 -29 -30 -30 -30 -29
-26 -26 -26 -25 -25 -25 -25 -26 -26 -26 -24 -26 -25 -26 -26 -26 -27 -27 -27 -28 -28 -28 -28 -28 -28 -28 -28
-26 -26 -26 -26 -25 -25 -25 -25 -26 -27 -25 -26 -26 -27 -27 -27 -28 -28 -28 -28 -28 -28 -28 -28 -28 -28 -28
-27 -27 -26 -26 -26 -25 -25 -25 -25 -26 -26 -27 -27 -27 -28 -28 -29 -28 -28 -28 -28 -27 -27 -27 -28 -28 -28
-27 -27 -26 -26 -26 -26 -25 -25 -24 -26 -25 -26 -27 -28 -28 -29 -29 -28 -28 -28 -27 -27 -27 -27 -27 -28 -28
-26 -26 -26 -25 -26 -25 -25 -26 -25 -25 -26 -26 -26 -27 -28 -29 -28 -28 -28 -27 -27 -27 -27 -27 -27 -28 -29
-26 -26 -26 -25 -25 -25 -25 -26 -25 -25 -26 -26 -26 -27 -28 -28 -27 -27 -27 -27 -27 -26 -26 -27 -27 -27 -28
-27 -26 -26 -26 -26 -26 -26 -26 -26 -25 -25 -26 -27 -26 -26 -27 -27 -27 -26 -26 -26 -26 -26 -27 -27 -27 -27
-27 -27 -27 -27 -26 -26 -26 -26 -26 -26 -25 -26 -26 -26 -26 -26 -27 -27 -26 -26 -26 -26 -26 -26 -27 -27 -27
-27 -27 -28 -27 -27 -27 -27 -27 -26 -26 -26 -26 -26 -26 -26 -26 -27 -26 -26 -26 -26 -26 -26 -26 -27 -27 -27
-28 -28 -28 -28 -27 -28 -28 -27 -27 -26 -26 -26 -26 -26 -26 -26 -26 -26 -26 -25 -26 -26 -26 -26 -26 -26 -26

GFSFLT2_500_temp_033.txt.gz
Temp
-17 -17 -17 -17 -17 -17 -19 -21 -23 -24 -25 -25 -25 -25 -25 -26 -26 -26 -26 -26 -26 -27 -27 -26 -26 -26 -24
-17 -17 -17 -18 -19 -22 -23 -25 -26 -25 -25 -25 -25 -26 -25 -25 -25 -26 -26 -26 -27 -27 -27 -27 -27 -27 -27
-17 -18 -19 -21 -23 -25 -25 -26 -26 -25 -25 -25 -24 -24 -24 -24 -24 -24 -25 -25 -26 -27 -27 -28 -28 -28 -28
-19 -21 -23 -24 -25 -25 -25 -26 -25 -25 -25 -25 -25 -25 -24 -24 -24 -24 -25 -25 -25 -26 -26 -27 -28 -28 -29
-22 -24 -25 -25 -25 -25 -25 -25 -26 -24 -25 -26 -25 -25 -25 -25 -25 -25 -25 -26 -26 -26 -27 -27 -27 -28 -29
-24 -25 -25 -25 -25 -25 -25 -25 -26 -25 -24 -26 -25 -26 -25 -26 -26 -26 -27 -27 -26 -26 -26 -26 -27 -28 -28
-25 -25 -25 -25 -25 -25 -25 -25 -25 -25 -24 -26 -24 -26 -25 -26 -27 -27 -27 -27 -27 -27 -27 -28 -28 -28 -28
-25 -25 -25 -25 -24 -24 -25 -25 -25 -25 -24 -25 -25 -25 -26 -27 -28 -28 -28 -28 -28 -28 -28 -28 -28 -28 -28
-25 -25 -25 -25 -24 -24 -25 -25 -25 -25 -25 -25 -25 -26 -26 -27 -28 -29 -28 -28 -28 -28 -28 -28 -28 -28 -27
-26 -26 -25 -25 -25 -24 -24 -24 -24 -25 -25 -26 -25 -26 -28 -28 -28 -28 -28 -28 -28 -27 -27 -27 -27 -27 -27
-26 -26 -26 -26 -26 -25 -24 -24 -24 -25 -25 -25 -25 -26 -26 -27 -27 -27 -27 -27 -27 -27 -27 -27 -26 -26 -27
-27 -26 -26 -27 -27 -26 -25 -25 -24 -24 -25 -25 -25 -26 -26 -26 -27 -27 -27 -27 -27 -26 -27 -26 -27 -27 -27
-27 -27 -27 -27 -27 -27 -26 -26 -25 -25 -25 -25 -25 -25 -26 -26 -27 -26 -26 -27 -26 -26 -27 -27 -27 -27 -27
-27 -27 -27 -27 -27 -27 -27 -27 -27 -26 -25 -26 -26 -26 -26 -26 -26 -26 -27 -26 -26 -26 -26 -26 -27 -27 -26
-28 -28 -28 -28 -28 -28 -27 -27 -27 -27 -27 -26 -26 -26 -26 -27 -27 -26 -27 -26 -26 -26 -27 -26 -27 -28 -27
-28 -28 -28 -29 -28 -28 -28 -28 -28 -28 -27 -26 -26 -26 -26 -26 -26 -27 -27 -26 -26 -27 -26 -27 -27 -27 -28
-29 -29 -29 -29 -29 -29 -29 -29 -28 -28 -27 -27 -27 -26 -26 -26 -26 -26 -26 -26 -26 -26 -27 -27 -27 -27 -27

GFSFLT2_500_temp_036.txt.gz
Temp
-18 -18 -18 -18 -18 -18 -18 -19 -20 -22 -23 -24 -24 -24 -24 -24 -24 -24 -24 -24 -25 -25 -25 -25 -25 -25 -24
-18 -18 -18 -18 -18 -18 -20 -23 -24 -24 -25 -24 -24 -24 -24 -24 -23 -23 -24 -24 -24 -24 -24 -25 -25 -25 -26
-18 -18 -19 -19 -19 -22 -24 -25 -25 -25 -25 -24 -24 -24 -24 -24 -24 -24 -24 -24 -25 -25 -25 -25 -25 -25 -25
-19 -19 -19 -21 -23 -24 -24 -25 -25 -25 -25 -24 -24 -24 -24 -23 -24 -23 -23 -23 -24 -24 -24 -25 -25 -25 -25
-20 -20 -23 -24 -25 -25 -25 -25 -26 -25 -24 -25 -25 -25 -24 -24 -24 -25 -24 -24 -25 -26 -26 -26 -26 -26 -26
-22 -24 -24 -25 -25 -25 -25 -25 -25 -26 -24 -26 -24 -25 -24 -24 -25 -25 -26 -27 -27 -27 -27 -27 -27 -27 -27
-24 -25 -25 -25 -25 -25 -26 -25 -25 -25 -23 -26 -24 -25 -24 -25 -25 -26 -27 -28 -28 -28 -28 -28 -28 -28 -28
-25 -25 -25 -25 -25 -25 -25 -25 -25 -25 -23 -25 -24 -25 -24 -25 -26 -27 -27 -27 -28 -28 -28 -28 -28 -28 -28
-26 -25 -25 -25 -25 -25 -25 -24 -25 -25 -24 -24 -24 -25 -25 -25 -26 -26 -26 -27 -27 -27 -27 -27 -27 -27 -27
-26 -26 -26 -26 -25 -25 -24 -25 -25 -26 -25 -25 -25 -25 -26 -25 -26 -26 -27 -27 -27 -27 -26 -26 -27 -26 -26
-27 -26 -26 -26 -26 -26 -26 -25 -25 -26 -26 -25 -26 -25 -25 -27 -27 -26 -27 -27 -27 -26 -26 -26 -26 -26 -26
-26 -26 -27 -27 -27 -27 -27 -27 -26 -26 -26 -26 -26 -25 -26 -26 -26 -27 -27 -27 -26 -26 -26 -27 -27 -27 -27
-27 -27 -27 -27 -27 -27 -27 -27 -28 -27 -26 -26 -26 -26 -25 -26 -26 -26 -26 -27 -26 -27 -27 -27 -27 -27 -28
-27 -28 -28 -28 -27 -28 -28 -28 -28 -28 -27 -26 -27 -26 -26 -26 -26 -26 -26 -26 -27 -27 -27 -27 -27 -27 -27
-27 -28 -28 -28 -29 -29 -29 -29 -28 -28 -29 -28 -27 -26 -26 -26 -27 -26 -26 -27 -27 -27 -27 -27 -27 -27 -27
-28 -29 -29 -30 -30 -29 -29 -29 -29 -28 -28 -28 -28 -27 -26 -26 -26 -26 -27 -26 -26 -27 -27 -27 -27 -27 -28
-29 -30 -30 -30 -30 -30 -29 -29 -29 -29 -28 -28 -27 -27 -27 -26 -26 -26 -27 -26 -26 -26 -27 -27 -27 -27 -27

GFSFLT2_500_temp_039.txt.gz
Temp
-18 -18 -18 -18 -18 -18 -18 -18 -18 -19 -20 -22 -23 -23 -23 -24 -24 -24 -23 -24 -24 -24 -24 -24 -24 -24 -23
-18 -18 -18 -18 -18 -18 -18 -19 -20 -22 -24 -25 -24 -24 -24 -24 -23 -23 -24 -24 -24 -24 -24 -23 -23 -23 -23
-18 -18 -18 -19 -19 -19 -20 -22 -24 -24 -25 -25 -24 -24 -24 -24 -24 -24 -24 -24 -24 -23 -24 -24 -24 -24 -24
-18 -18 -19 -19 -20 -21 -23 -24 -25 -25 -25 -25 -24 -24 -24 -24 -24 -24 -24 -23 -23 -23 -23 -24 -24 -25 -25
-18 -19 -19 -20 -22 -23 -24 -25 -26 -26 -25 -26 -25 -25 -24 -24 -24 -24 -24 -24 -24 -24 -25 -26 -27 -27 -27
-19 -20 -22 -24 -24 -25 -25 -25 -25 -27 -25 -26 -25 -25 -24 -24 -24 -24 -24 -24 -24 -25 -26 -27 -27 -28 -28
-21 -23 -24 -25 -25 -25 -26 -26 -26 -26 -25 -25 -25 -24 -24 -24 -24 -25 -25 -25 -26 -26 -26 -27 -27 -27 -27
-24 -25 -25 -26 -25 -25 -25 -25 -26 -26 -24 -24 -25 -25 -25 -24 -25 -25 -25 -25 -26 -26 -26 -26 -27 -27 -27
-25 -25 -25 -25 -25 -25 -25 -25 -26 -27 -26 -25 -26 -25 -25 -24 -25 -25 -25 -26 -26 -26 -26 -26 -26 -26 -26
-25 -25 -25 -25 -25 -25 -25 -26 -26 -26 -26 -26 -27 -26 -26 -26 -25 -25 -26 -26 -26 -26 -26 -26 -26 -26 -26
-25 -26 -26 -26 -26 -26 -26 -26 -27 -27 -27 -26 -27 -27 -26 -27 -27 -25 -25 -26 -26 -27 -27 -27 -27 -26 -26
-26 -26 -26 -27 -27 -27 -27 -27 -27 -27 -27 -27 -27 -27 -27 -27 -27 -27 -26 -27 -27 -27 -27 -27 -27 -27 -27
-26 -26 -27 -27 -28 -28 -29 -29 -29 -28 -28 -28 -27 -27 -27 -27 -27 -27 -27 -27 -27 -27 -27 -26 -27 -27 -27
-27 -27 -28 -28 -29 -29 -29 -30 -29 -30 -29 -28 -28 -28 -28 -27 -26 -27 -26 -26 -26 -26 -26 -27 -27 -27 -27
-28 -28 -28 -29 -29 -29 -29 -30 -29 -29 -29 -29 -29 -28 -28 -27 -27 -26 -26 -26 -26 -26 -26 -27 -27 -27 -27
-29 -29 -29 -29 -29 -30 -29 -29 -29 -29 -29 -29 -29 -28 -28 -26 -26 -26 -26 -26 -26 -26 -26 -27 -27 -27 -27
-30 -30 -30 -30 -29 -29 -29 -29 -29 -29 -29 -29 -28 -28 -28 -27 -25 -25 -26 -26 -26 -26 -27 -26 -27 -27 -27

GFSFLT2_500_temp_042.txt.gz
Temp
-17 -18 -18 -18 -18 -18 -17 -17 -17 -17 -18 -18 -19 -19 -21 -22 -23 -24 -24 -24 -25 -25 -25 -24 -24 -23 -23
-18 -18 -18 -18 -18 -17 -17 -17 -17 -18 -19 -21 -23 -23 -24 -24 -24 -24 -24 -25 -25 -25 -24 -24 -24 -24 -23
-18 -18 -18 -18 -17 -17 -17 -18 -19 -21 -23 -24 -25 -25 -25 -25 -24 -25 -24 -24 -25 -24 -24 -24 -24 -24 -24
-19 -18 -18 -18 -17 -17 -19 -21 -23 -24 -25 -26 -25 -25 -25 -25 -25 -24 -24 -25 -24 -24 -24 -24 -23 -24 -24
-18 -18 -18 -18 -19 -21 -22 -23 -26 -26 -25 -26 -25 -26 -26 -25 -24 -24 -24 -24 -24 -24 -24 -24 -24 -25 -25
-18 -18 -18 -20 -22 -23 -24 -24 -25 -26 -25 -26 -25 -25 -25 -25 -24 -24 -24 -24 -24 -24 -24 -24 -25 -25 -26
-19 -20 -21 -23 -24 -23 -24 -24 -25 -25 -24 -25 -25 -26 -25 -25 -24 -24 -24 -24 -24 -24 -24 -25 -25 -26 -26
-21 -23 -24 -24 -24 -24 -24 -24 -25 -26 -25 -24 -26 -26 -26 -26 -25 -24 -24 -24 -24 -24 -24 -25 -26 -26 -26
-24 -24 -24 -25 -25 -24 -25 -25 -25 -27 -27 -25 -26 -26 -27 -27 -26 -25 -25 -25 -25 -25 -25 -26 -26 -26 -26
-25 -25 -25 -25 -26 -25 -25 -25 -26 -27 -28 -26 -27 -26 -26 -28 -28 -26 -26 -26 -26 -26 -26 -26 -26 -25 -26
-25 -26 -26 -26 -27 -27 -27 -27 -27 -28 -28 -28 -28 -28 -27 -27 -29 -27 -26 -26 -26 -26 -26 -26 -26 -26 -26
-26 -27 -27 -27 -28 -28 -28 -28 -29 -28 -29 -29 -29 -28 -28 -28 -28 -28 -27 -26 -26 -26 -26 -26 -27 -26 -27
-27 -28 -28 -28 -28 -28 -29 -29 -30 -30 -30 -29 -29 -29 -28 -28 -28 -28 -28 -27 -26 -26 -26 -27 -27 -27 -27
-28 -29 -29 -29 -29 -29 -29 -29 -30 -30 -30 -29 -29 -29 -28 -28 -28 -28 -27 -27 -27 -26 -27 -27 -27 -26 -27
-29 -29 -30 -30 -30 -30 -30 -29 -29 -29 -30 -30 -29 -29 -29 -28 -28 -27 -27 -27 -26 -27 -26 -26 -27 -26 -27
-29 -30 -30 -31 -31 -31 -30 -30 -29 -29 -29 -29 -29 -29 -29 -28 -26 -27 -26 -26 -26 -26 -26 -26 -27 -26 -26
-30 -30 -31 -31 -31 -31 -31 -30 -30 -30 -29 -29 -29 -29 -28 -28 -26 -26 -27 -26 -26 -26 -26 -26 -26 -26 -26

GFSFLT2_500_temp_045.txt.gz
Temp
-17 -17 -18 -18 -18 -18 -18 -18 -18 -18 -17 -17 -17 -17 -17 -18 -19 -21 -22 -23 -24 -25 -25 -25 -25 -24 -24
-18 -18 -18 -18 -18 -18 -18 -18 -18 -18 -17 -17 -18 -19 -21 -22 -22 -24 -24 -25 -25 -25 -26 -25 -25 -24 -24
-18 -18 -18 -18 -18 -18 -18 -18 -18 -18 -19 -21 -22 -22 -23 -23 -24 -24 -25 -25 -26 -26 -26 -25 -25 -25 -25
-18 -18 -18 -18 -18 -18 -18 -19 -19 -21 -23 -23 -23 -23 -23 -24 -24 -24 -25 -25 -25 -25 -25 -25 -25 -25 -25
-18 -18 -18 -18 -18 -18 -19 -21 -23 -24 -24 -24 -24 -24 -24 -24 -24 -24 -24 -24 -25 -24 -24 -24 -24 -24 -24
-18 -18 -18 -18 -19 -21 -23 -24 -24 -25 -24 -24 -25 -25 -25 -25 -25 -24 -24 -23 -24 -24 -24 -24 -24 -24 -24
-18 -18 -18 -20 -23 -24 -24 -24 -25 -25 -25 -24 -25 -25 -26 -26 -26 -25 -24 -24 -24 -24 -24 -24 -24 -24 -24
-19 -20 -23 -25 -24 -24 -25 -24 -25 -26 -26 -24 -25 -26 -27 -27 -26 -26 -25 -25 -25 -25 -25 -24 -24 -24 -24
-23 -25 -24 -25 -25 -25 -25 -26 -27 -27 -27 -26 -26 -26 -27 -28 -28 -27 -26 -25 -25 -26 -26 -25 -25 -25 -25
-25 -25 -25 -26 -26 -27 -27 -28 -28 -28 -28 -27 -28 -27 -28 -29 -30 -28 -27 -26 -26 -26 -26 -26 -26 -26 -26
-25 -26 -27 -27 -28 -28 -29 -29 -29 -28 -28 -28 -29 -29 -29 -29 -30 -29 -28 -28 -26 -27 -27 -27 -26 -26 -26
-26 -27 -27 -28 -29 -29 -30 -30 -30 -29 -29 -29 -29 -29 -29 -29 -29 -30 -29 -28 -27 -27 -27 -27 -27 -26 -26
-27 -28 -28 -29 -30 -30 -31 -30 -31 -30 -29 -29 -29 -29 -29 -29 -28 -29 -28 -29 -27 -27 -27 -27 -27 -26 -26
-27 -28 -29 -30 -31 -31 -31 -31 -31 -31 -30 -29 -29 -29 -29 -29 -28 -29 -28 -28 -28 -26 -26 -27 -26 -26 -26
-28 -29 -30 -31 -32 -32 -32 -31 -31 -30 -31 -30 -29 -29 -29 -29 -28 -28 -28 -27 -27 -27 -26 -26 -27 -26 -26
-29 -30 -30 -31 -32 -32 -32 -32 -31 -31 -30 -29 -29 -29 -29 -29 -26 -27 -27 -27 -27 -27 -26 -26 -27 -26 -26
-29 -30 -30 -31 -32 -32 -32 -32 -31 -31 -30 -29 -29 -29 -29 -29 -27 -26 -27 -27 -27 -26 -26 -26 -26 -26 -26

GFSFLT2_500_temp_048.txt.gz
Temp
-17 -17 -17 -18 -18 -18 -18 -18 -18 -18 -18 -18 -18 -17 -17 -17 -17 -17 -17 -18 -20 -21 -21 -21 -22 -23 -23
-17 -17 -18 -18 -18 -18 -18 -18 -18 -18 -18 -18 -17 -17 -18 -18 -18 -20 -22 -22 -22 -23 -23 -23 -24 -25 -24
-18 -18 -19 -19 -18 -18 -18 -18 -18 -18 -18 -18 -18 -19 -20 -22 -23 -24 -23 -23 -23 -23 -24 -25 -25 -25 -25
-19 -19 -19 -19 -18 -18 -18 -18 -18 -18 -19 -19 -21 -23 -24 -24 -23 -23 -23 -23 -23 -24 -24 -25 -25 -25 -25
-19 -19 -19 -19 -19 -18 -18 -18 -19 -21 -23 -24 -24 -24 -24 -24 -24 -24 -24 -23 -23 -24 -24 -25 -24 -24 -25
-19 -19 -19 -19 -19 -19 -19 -20 -23 -25 -24 -24 -24 -24 -25 -25 -25 -25 -25 -24 -24 -24 -25 -25 -24 -24 -24
-19 -19 -19 -19 -19 -21 -24 -24 -24 -25 -25 -24 -25 -26 -27 -27 -27 -26 -26 -25 -25 -25 -25 -25 -25 -25 -24
-20 -19 -20 -21 -24 -24 -25 -25 -25 -25 -26 -24 -26 -27 -28 -28 -28 -27 -27 -26 -26 -26 -26 -26 -26 -26 -25
-20 -21 -24 -25 -25 -25 -25 -26 -26 -27 -29 -28 -28 -29 -29 -29 -28 -28 -28 -28 -27 -27 -27 -27 -27 -26 -26
-24 -25 -25 -26 -26 -26 -26 -27 -28 -29 -30 -29 -29 -29 -29 -30 -30 -30 -30 -29 -28 -28 -27 -27 -27 -27 -26
-25 -26 -26 -26 -27 -27 -28 -29 -29 -30 -30 -30 -30 -30 -29 -29 -30 -31 -31 -30 -29 -29 -28 -27 -27 -27 -27
-26 -26 -26 -27 -28 -29 -30 -30 -31 -31 -31 -31 -30 -30 -30 -30 -29 -30 -30 -30 -29 -29 -28 -27 -27 -27 -26
-26 -26 -27 -28 -29 -29 -30 -31 -32 -32 -32 -31 -30 -30 -29 -29 -29 -29 -29 -30 -29 -29 -28 -28 -28 -27 -27
-26 -27 -28 -29 -29 -30 -31 -32 -32 -32 -32 -31 -30 -30 -29 -29 -29 -29 -29 -29 -29 -28 -27 -27 -27 -27 -26
-27 -28 -28 -28 -29 -30 -31 -32 -32 -32 -32 -31 -30 -30 -30 -29 -29 -28 -28 -28 -27 -27 -27 -27 -26 -26 -26
-28 -28 -28 -28 -29 -30 -31 -31 -31 -31 -31 -30 -30 -30 -30 -29 -26 -27 -27 -27 -27 -27 -26 -27 -27 -26 -26
-27 -28 -28 -28 -28 -28 -29 -29 -30 -29 -29 -29 -29 -28 -28 -28 -27 -27 -27 -27 -27 -27 -26 -26 -26 -26 -26

GFSFLT2_500_temp_051.txt.gz
Temp
-16 -17 -17 -17 -17 -18 -18 -18 -18 -19 -18 -18 -18 -18 -18 -18 -18 -17 -17 -17 -17 -17 -17 -17 -18 -18 -19
-17 -18 -18 -18 -18 -18 -18 -19 -19 -19 -19 -18 -18 -18 -18 -18 -18 -18 -18 -18 -20 -21 -21 -22 -22 -23 -23
-18 -18 -18 -18 -19 -19 -19 -19 -19 -19 -19 -19 -19 -19 -18 -18 -18 -20 -22 -23 -23 -23 -23 -23 -23 -23 -23
-19 -19 -19 -19 -19 -19 -19 -19 -19 -19 -19 -19 -19 -20 -21 -22 -23 -24 -23 -23 -23 -23 -23 -24 -24 -24 -24
-19 -19 -19 -19 -19 -19 -19 -19 -19 -19 -20 -21 -22 -24 -25 -24 -24 -24 -24 -24 -23 -23 -24 -24 -25 -25 -25
-19 -19 -19 -19 -19 -19 -19 -19 -20 -23 -24 -25 -25 -25 -25 -26 -26 -26 -25 -25 -25 -25 -25 -25 -25 -25 -25
-19 -20 -20 -19 -20 -20 -20 -21 -24 -25 -25 -25 -26 -26 -27 -27 -28 -28 -28 -28 -28 -28 -27 -27 -26 -26 -26
-20 -20 -20 -20 -21 -22 -24 -25 -25 -25 -26 -26 -26 -27 -28 -29 -30 -30 -29 -29 -29 -28 -28 -28 -27 -27 -27
-20 -20 -21 -22 -24 -25 -25 -25 -25 -26 -28 -27 -28 -29 -29 -30 -31 -31 -30 -30 -29 -28 -28 -29 -29 -29 -28
-21 -22 -24 -26 -26 -26 -25 -26 -26 -27 -29 -29 -30 -30 -30 -31 -31 -32 -31 -30 -29 -29 -29 -29 -29 -29 -29
-23 -26 -26 -26 -26 -26 -26 -27 -28 -29 -31 -31 -31 -32 -31 -31 -31 -31 -31 -30 -30 -30 -30 -29 -29 -29 -29
-26 -26 -26 -26 -26 -27 -27 -28 -28 -30 -31 -31 -31 -31 -31 -31 -30 -31 -30 -30 -30 -30 -30 -29 -29 -28 -28
-26 -26 -26 -26 -26 -27 -28 -28 -29 -29 -30 -30 -30 -30 -30 -30 -29 -30 -29 -29 -30 -30 -29 -29 -29 -29 -28
-26 -26 -26 -26 -26 -27 -28 -27 -28 -29 -29 -29 -29 -29 -30 -29 -29 -29 -29 -29 -29 -28 -28 -28 -28 -28 -28
-26 -26 -26 -26 -26 -26 -27 -27 -27 -28 -28 -29 -29 -29 -29 -28 -27 -28 -28 -28 -28 -28 -28 -28 -27 -27 -27
-26 -26 -26 -26 -27 -27 -26 -26 -26 -27 -27 -27 -28 -28 -28 -27 -26 -27 -27 -27 -27 -27 -27 -27 -27 -27 -26
-27 -27 -27 -27 -27 -26 -26 -26 -26 -26 -26 -26 -27 -27 -27 -28 -27 -26 -26 -27 -27 -27 -27 -26 -26 -27 -26

GFSFLT2_500_temp_057.txt.gz
Temp
-16 -16 -17 -17 -18 -17 -17 -17 -17 -17 -18 -18 -18 -18 -18 -19 -19 -19 -19 -19 -19 -19 -19 -19 -18 -18 -18
-17 -17 -17 -17 -17 -17 -17 -18 -18 -18 -19 -19 -19 -19 -19 -19 -19 -19 -19 -19 -19 -19 -19 -19 -19 -19 -19
-17 -17 -17 -17 -18 -18 -18 -19 -19 -19 -20 -20 -20 -20 -20 -20 -20 -19 -19 -19 -19 -19 -19 -19 -20 -20 -20
-17 -17 -18 -18 -18 -19 -19 -20 -20 -20 -20 -20 -20 -20 -20 -20 -20 -20 -20 -20 -21 -22 -23 -24 -25 -25 -25
-18 -18 -18 -18 -19 -20 -20 -20 -20 -20 -20 -21 -21 -20 -21 -21 -21 -22 -24 -24 -24 -25 -25 -25 -26 -26 -26
-18 -18 -18 -19 -19 -19 -19 -20 -20 -21 -21 -21 -21 -22 -24 -25 -25 -25 -25 -25 -25 -26 -27 -27 -27 -27 -27
-18 -19 -19 -19 -19 -20 -20 -21 -21 -22 -21 -22 -24 -25 -25 -25 -25 -25 -25 -25 -27 -29 -31 -31 -31 -30 -30
-19 -18 -19 -19 -20 -21 -21 -22 -24 -25 -25 -24 -25 -25 -24 -25 -25 -25 -25 -26 -28 -30 -31 -31 -32 -31 -31
-19 -19 -20 -21 -22 -23 -24 -25 -25 -25 -25 -25 -25 -25 -25 -25 -25 -25 -25 -26 -28 -29 -29 -30 -30 -31 -31
-20 -21 -22 -24 -26 -25 -25 -25 -25 -25 -25 -25 -25 -25 -25 -27 -27 -26 -26 -26 -27 -29 -29 -29 -29 -30 -30
-23 -25 -25 -25 -25 -26 -25 -25 -25 -25 -25 -24 -25 -25 -25 -25 -27 -27 -27 -27 -27 -27 -28 -28 -29 -29 -30
-25 -25 -25 -25 -26 -26 -26 -26 -25 -25 -25 -25 -25 -25 -25 -25 -26 -26 -27 -27 -26 -28 -28 -28 -28 -28 -28
-25 -25 -25 -26 -26 -27 -26 -26 -26 -25 -24 -24 -25 -25 -25 -25 -25 -26 -26 -28 -27 -28 -28 -27 -27 -28 -28
-25 -25 -26 -26 -26 -27 -27 -27 -27 -26 -25 -25 -25 -25 -25 -25 -26 -25 -26 -27 -27 -27 -27 -27 -27 -27 -27
-25 -26 -26 -26 -26 -27 -27 -27 -26 -26 -26 -26 -25 -25 -25 -26 -26 -26 -26 -27 -27 -27 -27 -27 -27 -26 -27
-26 -26 -26 -26 -26 -27 -27 -27 -27 -26 -25 -25 -25 -25 -26 -26 -26 -26 -26 -27 -27 -26 -26 -27 -26 -26 -26
-26 -26 -26 -26 -26 -27 -27 -27 -27 -26 -26 -25 -25 -25 -25 -26 -26 -25 -25 -26 -26 -26 -26 -25 -26 -26 -25

GFSFLT2_500_temp_060.txt.gz
Temp
-16 -16 -17 -16 -17 -17 -17 -17 -17 -17 -17 -17 -17 -17 -18 -18 -17 -17 -18 -18 -18 -18 -18 -18 -18 -18 -18
-17 -17 -17 -17 -17 -17 -17 -17 -17 -17 -17 -18 -18 -18 -18 -18 -18 -19 -19 -19 -19 -19 -19 -19 -19 -19 -19
-17 -17 -17 -17 -17 -17 -17 -18 -18 -18 -18 -18 -18 -18 -19 -19 -19 -19 -19 -19 -20 -20 -20 -20 -20 -20 -20
-17 -17 -17 -18 -18 -17 -18 -19 -19 -19 -19 -19 -19 -19 -19 -20 -20 -20 -20 -20 -21 -21 -22 -22 -23 -23 -23
-17 -18 -18 -18 -18 -18 -18 -18 -18 -19 -19 -19 -20 -20 -21 -21 -21 -21 -22 -23 -23 -23 -24 -24 -24 -23 -23
-18 -18 -18 -18 -18 -18 -18 -18 -19 -20 -20 -21 -21 -22 -22 -23 -24 -24 -24 -24 -24 -24 -25 -25 -25 -25 -25
-19 -19 -18 -18 -18 -18 -19 -19 -20 -21 -21 -23 -24 -25 -25 -25 -25 -24 -24 -24 -24 -25 -25 -26 -27 -28 -28
-19 -19 -18 -18 -19 -20 -21 -22 -24 -24 -24 -25 -25 -25 -25 -25 -25 -24 -24 -24 -25 -25 -26 -26 -27 -28 -29
-19 -19 -19 -20 -21 -23 -24 -25 -25 -25 -25 -25 -25 -25 -26 -25 -25 -25 -25 -25 -25 -25 -25 -26 -27 -28 -29
-20 -21 -22 -23 -24 -24 -24 -25 -25 -25 -25 -25 -26 -25 -25 -26 -25 -25 -25 -25 -25 -26 -26 -26 -26 -27 -28
-22 -23 -24 -24 -24 -25 -25 -25 -25 -25 -24 -24 -26 -25 -25 -25 -26 -25 -25 -25 -26 -26 -26 -26 -26 -27 -27
-23 -24 -24 -24 -25 -25 -25 -25 -25 -26 -25 -25 -25 -25 -25 -25 -25 -26 -25 -26 -26 -26 -27 -26 -26 -27 -27
-24 -25 -25 -25 -25 -25 -26 -26 -26 -26 -25 -25 -25 -25 -24 -24 -25 -25 -25 -26 -26 -26 -27 -27 -27 -26 -27
-25 -25 -25 -26 -26 -26 -26 -26 -26 -26 -26 -26 -25 -25 -25 -25 -25 -25 -25 -26 -26 -26 -27 -27 -26 -26 -27
-25 -26 -26 -26 -26 -26 -26 -26 -26 -27 -27 -26 -26 -26 -25 -26 -25 -25 -26 -26 -25 -26 -26 -26 -25 -26 -26
-26 -26 -26 -26 -26 -26 -26 -26 -26 -27 -26 -27 -26 -26 -26 -26 -26 -25 -26 -25 -25 -25 -26 -26 -26 -25 -25
-26 -26 -26 -27 -27 -27 -27 -27 -27 -27 -26 -26 -26 -26 -25 -26 -26 -25 -26 -26 -26 -26 -25 -26 -26 -26 -26

GFSFLT2_500_temp_063.txt.gz
Temp
-16 -16 -16 -17 -17 -17 -17 -17 -17 -17 -17 -17 -17 -16 -17 -17 -17 -17 -17 -17 -17 -17 -17 -17 -17 -17 -18
-17 -17 -17 -17 -17 -17 -17 -17 -17 -17 -17 -17 -17 -17 -17 -17 -17 -17 -17 -17 -18 -18 -18 -18 -19 -19 -19
-17 -17 -17 -17 -17 -17 -17 -17 -18 -18 -18 -18 -17 -18 -18 -18 -17 -18 -18 -18 -18 -18 -19 -19 -20 -20 -20
-17 -17 -17 -18 -18 -19 -19 -18 -18 -18 -18 -18 -18 -17 -17 -17 -17 -18 -18 -19 -19 -20 -20 -21 -21 -22 -22
-17 -18 -19 -20 -19 -19 -19 -18 -18 -18 -18 -17 -17 -17 -18 -19 -19 -20 -20 -21 -21 -22 -23 -23 -24 -24 -24
-18 -20 -19 -19 -19 -19 -19 -18 -18 -18 -18 -19 -19 -21 -21 -22 -23 -23 -23 -24 -24 -23 -24 -24 -24 -25 -25
-19 -19 -19 -19 -19 -19 -19 -19 -20 -20 -21 -23 -23 -23 -23 -24 -24 -24 -24 -24 -24 -24 -24 -24 -25 -25 -25
-19 -19 -19 -19 -19 -19 -20 -21 -23 -23 -24 -24 -24 -24 -25 -25 -25 -24 -24 -24 -24 -24 -24 -25 -25 -25 -25
-19 -19 -19 -20 -20 -21 -22 -23 -24 -24 -24 -24 -24 -24 -25 -25 -25 -24 -24 -24 -24 -24 -25 -25 -25 -25 -25
-20 -20 -20 -20 -21 -23 -24 -24 -24 -25 -24 -25 -26 -25 -26 -27 -26 -25 -25 -24 -24 -25 -25 -25 -25 -25 -26
-20 -20 -21 -22 -23 -24 -25 -25 -25 -25 -25 -25 -26 -26 -26 -26 -26 -25 -24 -25 -25 -25 -25 -26 -26 -26 -26
-20 -21 -22 -24 -24 -25 -25 -25 -25 -25 -25 -25 -25 -26 -26 -26 -26 -26 -25 -25 -25 -26 -25 -26 -26 -25 -26
-21 -22 -24 -25 -25 -25 -25 -26 -26 -26 -26 -25 -25 -26 -26 -26 -25 -25 -25 -26 -25 -25 -26 -26 -25 -25 -25
-22 -24 -25 -25 -25 -25 -26 -26 -26 -26 -26 -26 -26 -26 -26 -26 -26 -25 -25 -25 -26 -26 -25 -25 -25 -25 -25
-24 -26 -26 -26 -26 -26 -26 -26 -27 -27 -27 -27 -26 -26 -26 -27 -26 -26 -25 -26 -26 -25 -25 -25 -25 -25 -25
-26 -26 -26 -26 -26 -26 -27 -27 -27 -27 -27 -27 -27 -26 -26 -27 -27 -27 -26 -26 -25 -25 -24 -25 -25 -25 -26
-27 -27 -27 -26 -27 -27 -27 -27 -27 -27 -27 -27 -27 -26 -26 -26 -27 -26 -26 -26 -26 -26 -25 -25 -25 -26 -26

GFSFLT2_500_temp_066.txt.gz
Temp
-16 -16 -16 -16 -17 -16 -17 -16 -17 -17 -17 -17 -17 -17 -17 -18 -18 -17 -17 -17 -17 -17 -17 -17 -17 -17 -17
-16 -16 -16 -16 -17 -17 -17 -17 -17 -17 -17 -18 -18 -19 -18 -18 -18 -18 -17 -17 -17 -17 -17 -17 -17 -17 -17
-17 -17 -17 -17 -17 -17 -17 -18 -18 -18 -19 -19 -19 -19 -18 -18 -18 -17 -17 -17 -17 -17 -17 -17 -17 -18 -18
-17 -17 -17 -17 -18 -18 -18 -19 -20 -19 -19 -19 -19 -19 -18 -18 -18 -17 -17 -17 -18 -18 -18 -19 -19 -20 -20
-17 -18 -18 -18 -18 -19 -20 -20 -19 -19 -19 -19 -19 -19 -19 -19 -19 -19 -20 -20 -21 -21 -22 -23 -23 -23 -24
-18 -18 -18 -19 -20 -20 -20 -20 -19 -20 -20 -20 -20 -20 -21 -22 -22 -23 -22 -22 -22 -23 -23 -23 -24 -24 -24
-18 -19 -19 -19 -19 -20 -20 -20 -20 -20 -20 -21 -21 -23 -24 -24 -24 -23 -23 -23 -24 -24 -24 -24 -24 -24 -24
-19 -19 -20 -20 -20 -20 -20 -20 -20 -21 -21 -23 -24 -24 -25 -25 -24 -24 -24 -24 -24 -24 -24 -24 -24 -25 -25
-20 -20 -20 -20 -20 -20 -20 -21 -21 -22 -23 -24 -25 -25 -25 -25 -25 -25 -24 -24 -24 -24 -24 -24 -24 -25 -25
-20 -20 -21 -21 -21 -21 -21 -22 -23 -24 -24 -25 -25 -25 -26 -26 -26 -26 -25 -25 -25 -24 -24 -24 -24 -24 -25
-21 -21 -21 -21 -21 -21 -22 -24 -25 -25 -25 -25 -26 -26 -26 -26 -27 -26 -26 -26 -25 -25 -25 -25 -25 -25 -25
-21 -21 -21 -21 -21 -23 -24 -25 -26 -26 -25 -25 -26 -26 -26 -26 -26 -26 -26 -26 -25 -25 -25 -25 -25 -25 -24
-21 -21 -21 -22 -23 -24 -26 -26 -26 -26 -26 -26 -26 -26 -26 -26 -26 -26 -26 -27 -26 -26 -25 -25 -25 -25 -25
-21 -22 -22 -23 -25 -26 -26 -26 -26 -26 -26 -26 -26 -26 -27 -27 -26 -26 -26 -26 -26 -25 -25 -26 -25 -25 -25
-22 -22 -23 -25 -27 -27 -27 -27 -27 -27 -27 -27 -27 -27 -27 -27 -27 -26 -26 -26 -25 -26 -26 -26 -25 -25 -25
-22 -24 -26 -28 -27 -27 -27 -27 -27 -27 -27 -27 -27 -27 -27 -27 -27 -27 -27 -27 -26 -26 -25 -25 -25 -25 -25
-25 -27 -28 -28 -28 -28 -27 -27 -27 -27 -28 -28 -28 -27 -27 -27 -27 -27 -27 -26 -26 -26 -25 -25 -25 -25 -25

GFSFLT2_500_temp_069.txt.gz
Temp
-17 -17 -17 -17 -17 -17 -17 -17 -17 -17 -17 -17 -17 -17 -17 -17 -18 -18 -18 -18 -18 -18 -18 -18 -17 -17 -17
-18 -18 -17 -17 -17 -18 -18 -17 -17 -17 -18 -18 -18 -18 -19 -19 -19 -19 -18 -18 -18 -18 -18 -18 -17 -17 -17
-18 -18 -18 -17 -18 -18 -18 -18 -18 -18 -18 -18 -19 -20 -19 -19 -19 -19 -19 -19 -19 -18 -18 -18 -18 -18 -17
-18 -18 -18 -18 -18 -18 -18 -18 -18 -19 -20 -20 -20 -20 -19 -19 -19 -19 -19 -19 -19 -19 -19 -19 -19 -19 -19
-19 -19 -18 -18 -18 -18 -18 -19 -20 -20 -20 -20 -20 -20 -20 -20 -20 -20 -20 -20 -20 -20 -21 -22 -22 -22 -22
-18 -18 -18 -18 -18 -19 -20 -20 -20 -20 -20 -20 -20 -20 -20 -20 -20 -21 -21 -21 -22 -23 -23 -23 -23 -24 -24
-18 -18 -18 -19 -19 -19 -20 -20 -20 -20 -21 -20 -21 -21 -21 -21 -22 -22 -23 -24 -24 -24 -24 -24 -24 -24 -24
-19 -20 -20 -20 -20 -20 -20 -20 -21 -21 -21 -21 -21 -22 -23 -24 -24 -24 -24 -25 -25 -25 -24 -25 -25 -25 -25
-20 -20 -20 -20 -20 -21 -21 -21 -21 -21 -21 -22 -23 -24 -25 -25 -25 -25 -25 -25 -25 -25 -25 -25 -24 -24 -25
-20 -20 -20 -21 -21 -21 -21 -21 -21 -21 -22 -23 -24 -25 -26 -26 -26 -26 -26 -26 -26 -25 -25 -25 -24 -24 -24
-20 -20 -21 -21 -21 -21 -22 -22 -22 -22 -23 -25 -26 -26 -26 -26 -27 -27 -27 -27 -26 -26 -26 -25 -25 -24 -24
-21 -21 -22 -22 -22 -22 -22 -22 -23 -25 -26 -26 -26 -26 -26 -27 -27 -27 -27 -27 -26 -26 -26 -26 -25 -25 -25
-21 -22 -22 -22 -22 -22 -23 -24 -26 -27 -27 -27 -27 -27 -27 -27 -27 -27 -27 -27 -27 -26 -26 -26 -26 -26 -25
-22 -22 -22 -22 -22 -23 -25 -27 -28 -28 -27 -27 -27 -27 -27 -27 -27 -27 -27 -27 -27 -26 -26 -26 -26 -26 -26
-22 -22 -22 -22 -23 -26 -28 -28 -28 -28 -27 -27 -27 -27 -27 -27 -27 -27 -27 -27 -26 -26 -26 -27 -27 -26 -25
-22 -22 -22 -23 -25 -27 -28 -28 -28 -27 -27 -27 -27 -27 -27 -28 -27 -28 -27 -27 -27 -26 -26 -27 -27 -26 -25
-23 -23 -23 -25 -26 -27 -27 -27 -27 -28 -27 -27 -27 -27 -27 -28 -28 -28 -27 -27 -27 -26 -26 -26 -26 -26 -25

GFSFLT2_500_temp_072.txt.gz
Temp
-21 -20 -20 -19 -18 -18 -17 -17 -17 -17 -17 -18 -18 -18 -17 -17 -18 -18 -18 -17 -18 -18 -18 -18 -18 -18 -18
-21 -20 -20 -19 -18 -18 -18 -17 -17 -18 -18 -18 -18 -18 -18 -18 -18 -18 -19 -19 -19 -19 -19 -19 -19 -18 -18
-20 -20 -19 -19 -18 -18 -18 -18 -18 -18 -18 -18 -18 -18 -18 -19 -19 -19 -20 -20 -19 -19 -19 -19 -19 -19 -19
-19 -19 -18 -18 -19 -19 -18 -18 -18 -18 -18 -19 -19 -19 -20 -20 -20 -20 -20 -20 -20 -20 -20 -20 -20 -20 -19
-19 -19 -19 -19 -19 -19 -19 -19 -18 -19 -19 -19 -20 -20 -20 -20 -20 -20 -20 -20 -20 -20 -20 -20 -20 -20 -20
-18 -18 -18 -18 -18 -19 -19 -19 -19 -20 -20 -20 -20 -20 -20 -20 -21 -21 -21 -21 -21 -21 -21 -21 -21 -22 -23
-19 -19 -18 -18 -18 -19 -19 -19 -19 -20 -20 -20 -20 -21 -21 -21 -21 -21 -21 -21 -21 -22 -22 -23 -24 -24 -25
-19 -19 -19 -19 -19 -19 -19 -20 -20 -20 -20 -21 -21 -21 -21 -21 -22 -22 -22 -22 -23 -24 -24 -25 -25 -25 -25
-19 -19 -19 -19 -19 -20 -20 -20 -21 -21 -21 -22 -22 -22 -22 -22 -23 -23 -24 -24 -25 -25 -25 -25 -25 -25 -25
-19 -19 -19 -20 -20 -21 -21 -21 -21 -22 -22 -22 -22 -23 -24 -24 -25 -25 -26 -26 -26 -26 -26 -26 -26 -26 -26
-19 -20 -20 -20 -21 -21 -22 -22 -22 -22 -22 -22 -24 -25 -26 -27 -27 -27 -27 -26 -26 -26 -26 -26 -26 -26 -26
-20 -20 -21 -21 -22 -22 -22 -22 -22 -22 -23 -25 -27 -27 -27 -27 -28 -27 -27 -27 -27 -27 -27 -27 -26 -26 -26
-21 -21 -22 -22 -22 -22 -22 -22 -22 -23 -26 -27 -28 -28 -28 -28 -28 -28 -28 -28 -28 -28 -27 -27 -27 -26 -26
-21 -21 -22 -22 -22 -22 -22 -22 -24 -25 -27 -28 -28 -28 -28 -27 -28 -28 -28 -28 -28 -28 -27 -27 -27 -26 -26
-21 -22 -22 -22 -22 -23 -23 -24 -25 -26 -27 -27 -27 -27 -27 -28 -28 -28 -28 -28 -28 -28 -27 -27 -27 -27 -26
-22 -22 -22 -23 -23 -23 -23 -25 -26 -27 -27 -27 -27 -27 -27 -28 -27 -28 -27 -28 -28 -28 -27 -27 -27 -27 -26
-22 -23 -23 -23 -23 -24 -24 -25 -26 -26 -27 -27 -27 -27 -27 -28 -28 -28 -27 -28 -28 -28 -28 -27 -27 -27 -27

GFSFLT2_500_temp_075.txt.gz
Temp
-18 -19 -20 -21 -21 -21 -20 -19 -18 -18 -18 -18 -18 -18 -17 -17 -18 -18 -18 -18 -17 -18 -18 -18 -17 -17 -17
-18 -18 -19 -20 -20 -20 -19 -18 -18 -18 -18 -18 -18 -17 -18 -18 -18 -18 -18 -18 -18 -18 -19 -18 -19 -19 -19
-17 -18 -19 -19 -19 -19 -19 -18 -18 -18 -18 -18 -18 -18 -18 -18 -18 -18 -18 -19 -19 -19 -19 -19 -19 -19 -19
-17 -18 -18 -18 -18 -18 -18 -18 -18 -18 -18 -18 -18 -18 -18 -19 -20 -20 -20 -20 -20 -20 -20 -20 -20 -20 -20
-17 -18 -18 -18 -18 -18 -18 -18 -18 -18 -19 -19 -19 -19 -20 -20 -20 -20 -20 -20 -20 -21 -21 -21 -21 -21 -21
-17 -18 -18 -18 -18 -18 -19 -19 -19 -20 -20 -20 -20 -20 -20 -20 -21 -21 -21 -21 -21 -21 -21 -21 -21 -21 -21
-18 -18 -18 -18 -18 -18 -18 -19 -19 -19 -19 -19 -20 -20 -21 -21 -21 -21 -21 -21 -21 -22 -22 -22 -22 -22 -23
-18 -18 -18 -18 -18 -19 -19 -19 -19 -20 -20 -20 -21 -21 -21 -21 -22 -22 -22 -22 -22 -23 -23 -23 -24 -24 -24
-18 -18 -18 -19 -19 -19 -19 -20 -20 -21 -21 -21 -21 -22 -22 -22 -22 -22 -22 -23 -24 -24 -25 -25 -26 -26 -26
-19 -19 -19 -19 -19 -20 -20 -21 -21 -21 -21 -22 -22 -22 -22 -22 -23 -24 -25 -26 -26 -26 -26 -26 -26 -26 -26
-19 -19 -19 -20 -20 -21 -21 -21 -21 -21 -22 -22 -22 -22 -22 -24 -26 -27 -28 -28 -27 -27 -27 -27 -27 -27 -27
-19 -20 -20 -20 -21 -21 -21 -22 -22 -22 -22 -22 -22 -23 -24 -27 -28 -28 -28 -28 -28 -27 -27 -27 -27 -27 -27
-20 -20 -21 -21 -21 -22 -22 -22 -22 -22 -23 -23 -23 -24 -26 -27 -28 -28 -28 -28 -27 -27 -27 -28 -28 -27 -27
-21 -21 -21 -22 -22 -22 -23 -23 -23 -23 -23 -23 -24 -25 -26 -27 -27 -27 -27 -28 -28 -28 -28 -28 -28 -28 -28
-21 -22 -22 -22 -23 -23 -23 -23 -23 -23 -24 -24 -25 -26 -27 -27 -27 -27 -27 -27 -28 -28 -28 -28 -28 -28 -28
-22 -22 -22 -23 -23 -23 -24 -24 -24 -24 -24 -24 -25 -26 -27 -27 -27 -28 -28 -27 -28 -28 -28 -28 -28 -29 -28
-22 -22 -23 -23 -24 -24 -24 -24 -24 -25 -25 -25 -25 -26 -27 -27 -28 -27 -27 -27 -27 -28 -28 -28 -28 -28 -28

GFSFLT2_500_temp_078.txt.gz
Temp
-16 -16 -16 -17 -17 -18 -19 -20 -20 -19 -18 -18 -18 -18 -18 -18 -18 -18 -17 -17 -17 -17 -17 -18 -18 -19 -18
-16 -17 -17 -17 -17 -18 -18 -18 -19 -18 -18 -18 -18 -18 -18 -18 -18 -18 -18 -18 -19 -18 -19 -19 -18 -18 -18
-17 -17 -17 -17 -17 -18 -18 -18 -18 -18 -18 -18 -18 -18 -18 -18 -19 -18 -19 -19 -19 -18 -18 -19 -19 -19 -20
-17 -17 -17 -17 -17 -18 -18 -18 -18 -18 -18 -18 -18 -18 -19 -19 -19 -19 -19 -19 -19 -20 -20 -20 -20 -20 -20
-17 -17 -17 -17 -17 -18 -18 -18 -18 -18 -19 -19 -19 -19 -19 -20 -20 -20 -20 -20 -20 -20 -20 -20 -21 -21 -21
-17 -17 -17 -18 -18 -18 -18 -18 -18 -18 -18 -18 -19 -19 -20 -21 -21 -21 -21 -21 -21 -21 -21 -21 -21 -21 -22
-18 -18 -18 -18 -18 -18 -18 -18 -18 -18 -19 -19 -19 -20 -20 -20 -21 -21 -21 -21 -22 -22 -22 -22 -22 -22 -22
-18 -18 -18 -18 -18 -18 -18 -19 -19 -19 -19 -20 -20 -20 -21 -21 -21 -21 -22 -22 -22 -22 -22 -23 -23 -24 -24
-18 -18 -19 -19 -19 -19 -19 -19 -19 -20 -20 -20 -21 -21 -21 -21 -22 -22 -22 -22 -22 -23 -24 -25 -26 -26 -26
-19 -19 -19 -19 -19 -19 -19 -20 -20 -20 -21 -21 -21 -22 -22 -22 -22 -22 -22 -22 -23 -25 -27 -28 -28 -27 -27
-19 -19 -19 -19 -20 -20 -20 -20 -21 -21 -22 -22 -22 -22 -22 -22 -23 -22 -23 -24 -25 -26 -27 -28 -28 -28 -28
-20 -20 -20 -20 -20 -21 -21 -21 -22 -22 -22 -22 -23 -23 -23 -23 -23 -23 -24 -25 -25 -26 -27 -27 -27 -27 -28
-20 -21 -21 -21 -21 -21 -21 -22 -22 -22 -23 -23 -23 -23 -24 -24 -24 -25 -25 -25 -25 -26 -26 -27 -27 -27 -27
-21 -21 -21 -21 -22 -22 -22 -22 -23 -23 -23 -24 -24 -24 -24 -25 -25 -26 -26 -26 -26 -26 -26 -27 -27 -27 -27
-21 -21 -22 -22 -22 -23 -23 -23 -24 -24 -24 -24 -24 -25 -25 -25 -26 -26 -26 -27 -27 -27 -27 -27 -27 -27 -27
-22 -22 -22 -22 -22 -23 -23 -24 -25 -25 -25 -25 -25 -25 -25 -26 -26 -26 -27 -27 -27 -27 -27 -27 -28 -28 -28
-22 -22 -22 -22 -23 -23 -23 -24 -25 -25 -25 -25 -25 -25 -25 -25 -26 -27 -27 -27 -27 -28 -28 -28 -28 -28 -28

GFSFLT2_500_temp_081.txt.gz
Temp
-16 -16 -16 -17 -17 -17 -17 -17 -17 -18 -18 -18 -17 -18 -18 -18 -18 -18 -18 -18 -18 -18 -17 -18 -18 -17 -17
-16 -16 -16 -17 -17 -17 -17 -17 -17 -18 -18 -18 -18 -18 -18 -18 -18 -18 -18 -18 -18 -18 -17 -17 -18 -19 -19
-16 -16 -17 -17 -17 -17 -17 -17 -18 -18 -18 -18 -18 -18 -18 -18 -18 -18 -18 -18 -18 -18 -18 -19 -19 -19 -19
-16 -17 -17 -17 -17 -17 -17 -18 -18 -18 -18 -18 -18 -18 -18 -18 -19 -19 -19 -19 -19 -19 -19 -19 -19 -19 -19
-17 -17 -17 -17 -18 -18 -18 -18 -18 -18 -18 -18 -18 -18 -19 -19 -19 -19 -19 -19 -20 -20 -20 -20 -20 -20 -20
-17 -17 -17 -17 -18 -18 -18 -18 -18 -18 -18 -18 -18 -18 -18 -19 -19 -20 -20 -21 -21 -21 -21 -21 -21 -21 -21
-17 -18 -18 -18 -18 -18 -18 -18 -18 -19 -19 -19 -19 -19 -19 -19 -19 -20 -20 -21 -21 -21 -21 -22 -22 -22 -22
-18 -18 -18 -18 -19 -19 -19 -19 -19 -19 -19 -19 -19 -19 -20 -20 -20 -21 -21 -21 -22 -22 -22 -22 -22 -22 -22
-18 -18 -18 -19 -19 -19 -19 -19 -20 -20 -20 -20 -20 -20 -21 -21 -21 -22 -22 -22 -22 -22 -22 -22 -22 -23 -23
-18 -19 -19 -19 -19 -20 -20 -20 -20 -20 -20 -21 -21 -21 -22 -22 -22 -22 -23 -23 -23 -23 -23 -23 -24 -24 -25
-19 -19 -19 -20 -20 -20 -20 -20 -21 -21 -21 -22 -22 -22 -22 -23 -23 -23 -23 -23 -23 -23 -24 -25 -25 -25 -26
-20 -20 -20 -20 -20 -21 -21 -21 -21 -21 -21 -22 -23 -23 -23 -23 -24 -24 -24 -24 -24 -24 -25 -25 -26 -26 -26
-20 -20 -20 -20 -21 -21 -21 -21 -21 -21 -22 -22 -23 -23 -24 -24 -24 -24 -24 -24 -24 -25 -25 -26 -26 -26 -26
-20 -20 -21 -21 -21 -21 -21 -21 -22 -22 -22 -23 -23 -24 -25 -25 -25 -25 -25 -25 -25 -25 -25 -25 -26 -27 -27
-21 -21 -21 -21 -21 -21 -21 -22 -22 -23 -23 -23 -24 -25 -25 -25 -25 -25 -25 -25 -25 -25 -25 -26 -27 -27 -27
-21 -21 -21 -21 -21 -21 -22 -22 -23 -23 -23 -24 -25 -25 -25 -25 -25 -26 -26 -26 -26 -26 -26 -26 -27 -27 -27
-21 -21 -21 -21 -22 -22 -22 -23 -23 -23 -24 -25 -25 -25 -25 -25 -26 -26 -26 -26 -26 -26 -27 -27 -27 -28 -28

GFSFLT2_500_temp_084.txt.gz
Temp
-15 -15 -15 -16 -16 -16 -16 -16 -17 -17 -17 -17 -17 -17 -17 -18 -18 -18 -18 -18 -17 -18 -18 -18 -18 -18 -17
-15 -15 -16 -16 -16 -16 -16 -17 -17 -17 -17 -17 -17 -17 -17 -18 -18 -18 -18 -18 -18 -18 -18 -18 -18 -18 -18
-16 -16 -16 -16 -17 -17 -17 -17 -17 -17 -17 -17 -17 -18 -18 -18 -18 -18 -18 -18 -18 -18 -18 -18 -18 -18 -18
-16 -16 -16 -16 -17 -17 -17 -17 -17 -17 -18 -18 -18 -18 -18 -18 -18 -18 -18 -19 -19 -18 -18 -18 -18 -18 -18
-16 -16 -17 -17 -17 -17 -17 -18 -18 -18 -18 -18 -18 -18 -18 -19 -19 -19 -19 -19 -19 -19 -19 -19 -19 -19 -19
-17 -17 -17 -17 -18 -18 -18 -18 -18 -18 -18 -19 -19 -19 -19 -19 -19 -19 -19 -19 -19 -20 -20 -20 -20 -20 -20
-17 -17 -17 -18 -18 -18 -18 -18 -19 -19 -19 -19 -19 -19 -19 -19 -20 -20 -20 -20 -20 -20 -21 -21 -21 -21 -21
-18 -18 -18 -18 -18 -18 -18 -19 -19 -19 -19 -20 -20 -20 -20 -20 -20 -20 -21 -21 -21 -21 -21 -22 -22 -22 -22
-18 -18 -18 -18 -19 -19 -19 -19 -19 -20 -20 -20 -20 -20 -21 -21 -21 -21 -21 -22 -22 -22 -22 -22 -22 -23 -22
-18 -18 -19 -19 -19 -19 -19 -19 -20 -20 -20 -21 -21 -21 -21 -21 -21 -21 -22 -22 -23 -23 -23 -23 -23 -23 -23
-18 -19 -19 -19 -19 -19 -20 -20 -20 -20 -21 -21 -21 -21 -21 -21 -22 -22 -22 -23 -24 -24 -24 -24 -24 -24 -24
-19 -19 -19 -20 -20 -20 -20 -20 -21 -21 -21 -21 -21 -22 -22 -22 -22 -22 -23 -24 -25 -25 -25 -25 -25 -25 -25
-19 -19 -20 -20 -20 -20 -21 -21 -21 -21 -21 -21 -22 -22 -22 -23 -23 -24 -24 -25 -25 -25 -25 -25 -25 -25 -25
-19 -20 -20 -20 -20 -21 -21 -21 -21 -21 -21 -22 -22 -22 -23 -23 -24 -25 -25 -25 -25 -25 -25 -25 -25 -26 -26
-19 -20 -20 -20 -21 -21 -21 -21 -21 -21 -22 -22 -22 -23 -23 -23 -25 -25 -26 -26 -25 -25 -25 -25 -25 -26 -26
-20 -20 -21 -21 -21 -21 -21 -21 -22 -22 -22 -22 -23 -23 -23 -24 -25 -26 -26 -26 -25 -25 -26 -26 -26 -26 -26
-20 -21 -21 -21 -21 -21 -21 -22 -22 -22 -22 -23 -23 -23 -24 -24 -26 -26 -26 -26 -26 -26 -26 -26 -26 -27 -27

GFSFLT2_500_temp_087.txt.gz
Temp
-14 -15 -15 -15 -15 -15 -16 -16 -16 -16 -16 -17 -17 -17 -17 -17 -17 -17 -17 -17 -17 -18 -18 -18 -18 -18 -18
-15 -15 -15 -15 -16 -16 -16 -16 -16 -17 -17 -17 -17 -17 -17 -17 -17 -18 -18 -18 -18 -18 -18 -18 -18 -18 -18
-15 -16 -16 -16 -16 -16 -17 -17 -17 -17 -17 -17 -17 -17 -17 -18 -18 -18 -18 -18 -18 -18 -18 -18 -18 -18 -18
-16 -16 -16 -16 -17 -17 -17 -17 -17 -17 -17 -18 -18 -18 -18 -18 -18 -18 -18 -18 -18 -18 -19 -18 -18 -18 -18
-16 -16 -16 -17 -17 -17 -17 -17 -17 -17 -18 -18 -18 -18 -18 -18 -19 -19 -19 -19 -19 -19 -19 -19 -19 -19 -19
-17 -17 -17 -17 -17 -17 -17 -17 -18 -18 -18 -18 -18 -19 -19 -19 -19 -19 -19 -20 -20 -20 -20 -20 -20 -20 -20
-17 -17 -17 -17 -18 -18 -18 -18 -18 -18 -19 -19 -19 -19 -19 -20 -20 -20 -20 -20 -20 -20 -20 -20 -21 -21 -21
-17 -17 -18 -18 -18 -18 -18 -18 -19 -19 -19 -19 -19 -20 -20 -20 -20 -20 -20 -20 -20 -21 -21 -21 -21 -21 -22
-18 -18 -18 -18 -18 -18 -19 -19 -19 -19 -19 -20 -20 -20 -20 -20 -21 -20 -21 -21 -21 -21 -22 -22 -22 -22 -22
-18 -18 -18 -18 -19 -19 -19 -19 -19 -20 -20 -20 -20 -20 -21 -21 -21 -21 -21 -21 -21 -22 -22 -22 -22 -22 -23
-18 -18 -18 -19 -19 -19 -19 -19 -20 -20 -20 -20 -20 -21 -21 -21 -21 -21 -22 -22 -22 -22 -23 -23 -23 -24 -25
-18 -18 -19 -19 -19 -19 -19 -19 -20 -20 -20 -20 -21 -21 -21 -21 -21 -22 -22 -22 -22 -23 -23 -24 -25 -25 -25
-19 -19 -19 -19 -19 -19 -20 -20 -20 -20 -20 -21 -21 -21 -21 -21 -22 -22 -22 -22 -23 -23 -24 -25 -26 -26 -25
-19 -19 -19 -19 -20 -20 -20 -20 -20 -20 -21 -21 -21 -21 -22 -22 -22 -23 -23 -23 -23 -23 -24 -25 -26 -26 -26
-20 -20 -20 -20 -20 -20 -20 -21 -21 -21 -21 -21 -21 -22 -22 -22 -23 -23 -23 -23 -24 -24 -25 -26 -26 -26 -26
-20 -20 -20 -20 -20 -20 -21 -21 -21 -21 -21 -22 -22 -22 -22 -23 -23 -24 -24 -24 -24 -25 -25 -26 -26 -26 -26
-20 -20 -20 -20 -21 -21 -21 -22 -22 -22 -22 -22 -22 -22 -23 -23 -24 -24 -24 -25 -25 -25 -26 -26 -26 -27 -27

GFSFLT2_500_temp_090.txt.gz
Temp
-14 -15 -15 -15 -15 -15 -15 -15 -15 -16 -16 -16 -16 -17 -17 -17 -17 -17 -17 -18 -18 -18 -18 -18 -18 -18 -18
-15 -15 -15 -15 -15 -15 -16 -16 -16 -16 -16 -16 -17 -17 -17 -17 -17 -18 -18 -18 -18 -18 -18 -18 -18 -18 -18
-15 -16 -16 -16 -16 -16 -16 -16 -16 -16 -17 -17 -17 -17 -17 -17 -18 -18 -18 -18 -18 -18 -18 -19 -18 -18 -18
-16 -16 -16 -16 -16 -17 -17 -17 -17 -17 -17 -17 -17 -18 -18 -18 -18 -18 -19 -19 -19 -19 -19 -19 -19 -19 -19
-16 -17 -17 -17 -17 -17 -17 -17 -17 -17 -18 -18 -18 -18 -18 -18 -19 -19 -19 -19 -19 -19 -19 -20 -20 -20 -20
-17 -17 -17 -17 -17 -17 -17 -17 -18 -18 -18 -18 -18 -19 -19 -19 -19 -19 -19 -19 -19 -20 -20 -20 -20 -20 -20
-17 -17 -17 -17 -17 -17 -18 -18 -18 -18 -18 -19 -19 -19 -19 -19 -19 -19 -20 -20 -20 -20 -20 -20 -20 -20 -21
-18 -18 -18 -18 -18 -18 -17 -18 -18 -18 -19 -19 -19 -19 -19 -20 -20 -20 -20 -20 -20 -20 -20 -20 -21 -21 -21
-18 -18 -18 -18 -18 -18 -18 -18 -18 -18 -19 -19 -19 -20 -20 -20 -20 -21 -21 -21 -21 -21 -21 -21 -21 -21 -22
-18 -18 -18 -18 -18 -18 -18 -18 -19 -19 -19 -19 -20 -20 -20 -20 -20 -21 -21 -21 -21 -21 -21 -21 -22 -22 -22
-19 -19 -19 -19 -18 -18 -19 -19 -19 -19 -19 -20 -20 -20 -20 -20 -21 -21 -21 -21 -21 -22 -22 -22 -22 -22 -23
-19 -19 -19 -19 -19 -19 -19 -19 -19 -19 -20 -20 -20 -20 -20 -20 -21 -21 -21 -21 -22 -22 -22 -23 -23 -23 -23
-20 -19 -20 -20 -19 -19 -19 -19 -20 -20 -20 -20 -21 -21 -21 -21 -21 -21 -21 -22 -22 -22 -23 -23 -23 -24 -24
-20 -20 -20 -20 -20 -20 -20 -20 -20 -20 -20 -20 -21 -21 -21 -21 -21 -22 -22 -22 -22 -23 -23 -24 -24 -24 -24
-20 -20 -20 -20 -20 -20 -20 -20 -20 -20 -20 -21 -21 -22 -22 -22 -22 -22 -22 -22 -23 -23 -24 -24 -25 -25 -25
-20 -20 -20 -20 -20 -20 -20 -20 -21 -21 -21 -21 -22 -22 -22 -22 -22 -23 -23 -23 -23 -24 -24 -24 -25 -25 -25
-20 -20 -20 -20 -20 -21 -20 -21 -21 -21 -21 -22 -22 -22 -23 -23 -23 -23 -23 -24 -24 -24 -25 -25 -25 -26 -26

GFSFLT2_500_temp_093.txt.gz
Temp
-14 -14 -15 -15 -15 -15 -15 -16 -16 -16 -16 -16 -16 -16 -16 -17 -17 -17 -18 -18 -18 -18 -18 -18 -18 -18 -18
-15 -15 -15 -15 -16 -16 -16 -16 -16 -16 -16 -16 -16 -17 -17 -17 -17 -18 -18 -18 -18 -18 -18 -19 -19 -19 -18
-16 -15 -16 -16 -16 -16 -16 -16 -16 -17 -17 -17 -17 -17 -17 -18 -18 -18 -18 -18 -18 -19 -19 -19 -19 -19 -19
-16 -16 -16 -17 -17 -16 -17 -17 -17 -17 -17 -17 -18 -18 -18 -18 -18 -18 -19 -19 -19 -19 -19 -19 -19 -20 -20
-17 -17 -17 -17 -17 -17 -17 -17 -17 -17 -18 -18 -18 -18 -18 -18 -19 -19 -19 -19 -19 -19 -19 -20 -20 -20 -20
-18 -18 -17 -17 -17 -17 -17 -17 -17 -18 -18 -18 -18 -18 -18 -19 -19 -19 -19 -19 -19 -20 -20 -20 -20 -20 -20
-19 -18 -18 -18 -18 -18 -18 -18 -18 -18 -18 -18 -18 -18 -19 -19 -19 -19 -19 -19 -20 -20 -20 -20 -20 -20 -20
-19 -19 -18 -18 -18 -18 -18 -18 -18 -18 -18 -18 -18 -18 -19 -19 -19 -19 -19 -19 -20 -20 -21 -21 -20 -21 -21
-19 -19 -19 -19 -19 -18 -18 -18 -18 -18 -18 -18 -18 -19 -19 -19 -19 -20 -20 -20 -20 -20 -21 -21 -21 -21 -21
-19 -19 -19 -19 -19 -19 -19 -19 -19 -18 -18 -19 -19 -19 -19 -19 -20 -20 -20 -20 -20 -21 -21 -21 -21 -21 -22
-20 -19 -19 -19 -19 -19 -19 -19 -19 -19 -19 -19 -19 -19 -20 -20 -20 -20 -21 -21 -21 -21 -21 -21 -22 -22 -22
-20 -20 -20 -20 -20 -20 -20 -19 -19 -19 -20 -19 -20 -20 -20 -20 -20 -21 -21 -21 -21 -21 -21 -22 -22 -22 -22
-20 -20 -20 -20 -20 -20 -20 -20 -20 -20 -20 -20 -20 -20 -20 -21 -21 -21 -21 -22 -22 -22 -22 -22 -22 -23 -23
-20 -20 -20 -20 -20 -20 -20 -20 -20 -20 -20 -20 -20 -21 -21 -21 -21 -22 -22 -22 -22 -22 -22 -23 -23 -23 -23
-21 -20 -20 -20 -20 -20 -20 -20 -20 -20 -20 -20 -21 -21 -21 -21 -22 -22 -22 -22 -22 -23 -23 -23 -24 -24 -24
-21 -21 -21 -21 -20 -20 -20 -20 -20 -20 -21 -21 -21 -21 -21 -22 -22 -22 -22 -23 -23 -23 -23 -24 -24 -24 -24
-21 -21 -20 -21 -20 -20 -21 -21 -21 -21 -21 -21 -21 -21 -22 -22 -22 -22 -23 -23 -23 -23 -24 -24 -25 -25 -25

GFSFLT2_500_temp_096.txt.gz
Temp
-14 -14 -14 -14 -15 -15 -15 -15 -16 -16 -16 -16 -16 -17 -17 -17 -17 -17 -17 -18 -18 -18 -18 -18 -19 -19 -19
-15 -15 -15 -15 -15 -16 -16 -16 -16 -16 -16 -16 -17 -17 -17 -17 -17 -17 -18 -18 -18 -18 -19 -19 -19 -19 -19
-15 -15 -15 -16 -16 -16 -17 -17 -17 -17 -17 -17 -17 -17 -17 -17 -18 -18 -18 -18 -18 -19 -19 -19 -19 -19 -19
-16 -16 -16 -16 -16 -17 -17 -17 -17 -17 -17 -17 -17 -18 -18 -18 -18 -18 -18 -18 -19 -19 -19 -19 -19 -19 -20
-17 -17 -17 -17 -17 -18 -18 -18 -17 -17 -17 -18 -18 -18 -18 -18 -18 -18 -18 -19 -19 -19 -19 -19 -19 -19 -20
-17 -17 -18 -18 -19 -19 -18 -18 -18 -18 -18 -18 -18 -18 -18 -18 -18 -18 -18 -19 -19 -19 -19 -19 -19 -20 -20
-18 -18 -18 -19 -19 -19 -19 -18 -18 -18 -18 -18 -18 -18 -18 -18 -18 -18 -19 -19 -19 -19 -19 -19 -19 -20 -20
-19 -19 -19 -19 -19 -19 -19 -19 -18 -18 -19 -18 -18 -18 -18 -18 -18 -19 -19 -19 -19 -19 -20 -20 -20 -20 -21
-19 -19 -19 -20 -20 -20 -19 -19 -19 -19 -19 -19 -19 -18 -18 -18 -19 -19 -19 -19 -20 -20 -20 -20 -20 -20 -21
-19 -19 -20 -20 -20 -20 -20 -19 -19 -19 -19 -19 -19 -19 -19 -19 -19 -19 -19 -20 -20 -20 -20 -21 -21 -20 -21
-19 -20 -21 -20 -20 -20 -20 -20 -20 -20 -20 -19 -19 -19 -19 -19 -20 -20 -20 -20 -20 -20 -21 -21 -21 -21 -21
-20 -21 -21 -20 -20 -20 -20 -20 -20 -20 -20 -20 -20 -20 -20 -20 -20 -20 -20 -20 -21 -21 -21 -22 -22 -22 -22
-21 -20 -21 -21 -20 -20 -20 -20 -20 -20 -20 -20 -20 -20 -20 -20 -20 -20 -21 -21 -21 -21 -22 -22 -22 -22 -22
-20 -20 -21 -21 -21 -20 -21 -21 -21 -21 -21 -20 -20 -20 -21 -21 -21 -21 -21 -21 -21 -22 -22 -22 -22 -22 -23
-20 -21 -21 -21 -21 -21 -21 -21 -21 -21 -21 -21 -20 -21 -21 -21 -21 -21 -21 -21 -22 -22 -22 -22 -23 -23 -23
-21 -21 -21 -21 -21 -21 -21 -21 -21 -21 -21 -21 -21 -21 -21 -21 -21 -21 -22 -22 -22 -22 -22 -23 -23 -23 -24
-20 -20 -21 -21 -21 -21 -21 -21 -21 -21 -21 -21 -20 -21 -21 -21 -21 -22 -22 -22 -22 -22 -23 -23 -24 -24 -24

GFSFLT2_500_temp_099.txt.gz
Temp
-14 -14 -15 -15 -15 -15 -15 -15 -15 -15 -16 -16 -16 -16 -16 -17 -17 -17 -17 -17 -17 -18 -18 -18 -18 -18 -19
-15 -15 -15 -16 -16 -16 -16 -16 -16 -16 -16 -17 -17 -17 -17 -17 -17 -17 -18 -18 -18 -18 -18 -18 -19 -19 -19
-16 -16 -16 -16 -16 -16 -16 -16 -16 -17 -17 -17 -17 -17 -17 -17 -18 -18 -18 -18 -18 -18 -19 -19 -19 -19 -19
-17 -16 -16 -16 -16 -17 -17 -17 -17 -17 -18 -18 -17 -17 -18 -18 -18 -18 -18 -18 -18 -18 -19 -19 -19 -19 -19
-17 -17 -17 -17 -17 -17 -17 -18 -18 -18 -18 -18 -18 -18 -18 -18 -18 -18 -18 -18 -18 -19 -19 -19 -19 -19 -19
-18 -18 -18 -18 -18 -18 -18 -19 -19 -19 -19 -19 -18 -18 -18 -18 -18 -18 -18 -18 -18 -19 -19 -19 -19 -19 -19
-19 -18 -19 -18 -19 -19 -19 -19 -19 -19 -19 -19 -18 -18 -18 -18 -18 -18 -18 -18 -18 -19 -19 -19 -19 -19 -19
-19 -18 -19 -19 -19 -19 -19 -19 -20 -20 -20 -19 -19 -19 -19 -19 -19 -18 -18 -18 -19 -19 -19 -19 -19 -20 -20
-19 -19 -19 -19 -19 -20 -20 -20 -20 -20 -20 -20 -19 -19 -19 -19 -19 -19 -19 -19 -19 -19 -19 -20 -20 -20 -20
-19 -19 -19 -19 -19 -20 -20 -20 -20 -20 -20 -20 -20 -19 -19 -19 -19 -19 -19 -19 -19 -20 -20 -20 -20 -20 -20
-19 -19 -19 -19 -20 -20 -20 -20 -20 -20 -20 -20 -20 -20 -20 -20 -20 -20 -20 -20 -20 -20 -20 -20 -20 -21 -21
-19 -19 -20 -20 -20 -20 -21 -20 -20 -20 -20 -20 -20 -20 -20 -20 -20 -20 -20 -20 -20 -21 -21 -21 -21 -21 -21
-19 -20 -20 -20 -20 -21 -21 -21 -20 -20 -20 -21 -21 -21 -20 -20 -20 -20 -20 -20 -21 -21 -21 -21 -21 -21 -21
-20 -20 -19 -20 -21 -21 -21 -21 -21 -21 -21 -21 -21 -21 -21 -21 -20 -20 -20 -21 -21 -21 -21 -21 -21 -21 -22
-20 -20 -20 -20 -21 -21 -21 -21 -21 -21 -21 -21 -21 -21 -21 -21 -20 -20 -20 -20 -21 -21 -21 -21 -21 -22 -22
-20 -20 -20 -20 -21 -21 -21 -21 -21 -21 -21 -21 -21 -21 -21 -21 -21 -21 -21 -21 -21 -21 -21 -22 -21 -22 -22
-20 -20 -20 -20 -21 -21 -21 -21 -21 -21 -21 -21 -21 -21 -21 -21 -21 -21 -21 -21 -21 -21 -21 -22 -22 -22 -23

GFSFLT2_500_temp_102.txt.gz
Temp
-14 -15 -15 -15 -16 -16 -16 -16 -16 -16 -16 -16 -16 -16 -17 -17 -17 -17 -17 -17 -17 -17 -18 -18 -18 -18 -19
-16 -16 -16 -17 -16 -17 -17 -17 -17 -17 -17 -17 -17 -17 -17 -17 -17 -17 -17 -18 -18 -18 -18 -18 -18 -18 -19
-17 -17 -17 -17 -17 -17 -17 -17 -17 -18 -17 -17 -17 -17 -17 -18 -17 -18 -18 -18 -18 -18 -18 -18 -18 -19 -19
-18 -18 -18 -18 -18 -17 -17 -17 -17 -17 -17 -17 -18 -18 -18 -18 -18 -18 -18 -18 -18 -19 -19 -19 -19 -19 -19
-18 -18 -18 -18 -18 -18 -18 -18 -18 -18 -18 -19 -19 -19 -19 -19 -18 -18 -18 -18 -19 -19 -19 -19 -19 -19 -19
-18 -19 -19 -19 -18 -18 -19 -18 -18 -19 -20 -20 -19 -20 -20 -19 -19 -19 -19 -19 -19 -19 -19 -19 -19 -19 -19
-19 -19 -19 -19 -19 -19 -19 -19 -19 -20 -20 -19 -20 -20 -20 -20 -19 -19 -19 -19 -19 -19 -19 -19 -19 -19 -19
-19 -19 -19 -19 -19 -19 -19 -19 -19 -20 -20 -20 -20 -20 -20 -20 -19 -19 -19 -19 -19 -19 -19 -19 -19 -19 -19
-19 -19 -20 -20 -19 -19 -19 -19 -19 -20 -20 -20 -20 -20 -20 -20 -20 -20 -19 -19 -19 -19 -19 -19 -19 -19 -20
-19 -19 -20 -20 -19 -19 -19 -20 -20 -20 -20 -20 -20 -20 -20 -20 -20 -20 -20 -20 -20 -20 -19 -19 -20 -20 -20
-19 -19 -20 -20 -20 -20 -20 -20 -20 -20 -20 -20 -20 -20 -20 -20 -20 -20 -20 -20 -20 -20 -20 -20 -20 -20 -20
-19 -20 -20 -20 -20 -20 -20 -20 -20 -20 -21 -20 -20 -20 -20 -20 -21 -21 -21 -21 -21 -20 -20 -20 -20 -20 -20
-20 -20 -20 -20 -20 -20 -20 -20 -21 -21 -21 -21 -21 -20 -20 -21 -21 -21 -21 -21 -21 -21 -20 -21 -21 -21 -21
-20 -20 -20 -20 -20 -20 -20 -21 -21 -21 -21 -21 -21 -21 -21 -21 -21 -21 -21 -21 -21 -21 -21 -21 -21 -21 -21
-20 -20 -20 -20 -20 -20 -21 -21 -21 -21 -21 -21 -21 -21 -21 -21 -21 -21 -21 -21 -21 -21 -21 -21 -21 -21 -21
-20 -20 -20 -20 -20 -20 -20 -21 -21 -21 -21 -21 -21 -21 -21 -21 -21 -21 -21 -21 -21 -21 -21 -21 -21 -21 -21
-20 -20 -20 -20 -21 -21 -21 -21 -21 -21 -21 -21 -21 -21 -21 -21 -21 -21 -21 -21 -21 -21 -21 -21 -21 -21 -22

GFSFLT2_500_temp_105.txt.gz
Temp
-15 -15 -15 -15 -16 -16 -16 -16 -17 -17 -17 -17 -17 -17 -17 -17 -17 -17 -17 -17 -17 -17 -17 -18 -18 -18 -18
-15 -15 -16 -16 -17 -17 -17 -17 -17 -17 -17 -17 -17 -18 -18 -18 -18 -17 -17 -17 -17 -18 -18 -18 -18 -18 -19
-17 -17 -17 -17 -18 -18 -18 -18 -18 -18 -17 -17 -18 -18 -18 -19 -18 -18 -18 -18 -18 -18 -18 -18 -18 -18 -19
-17 -18 -18 -18 -18 -18 -18 -18 -18 -18 -18 -18 -18 -18 -18 -18 -18 -19 -19 -19 -18 -18 -18 -18 -18 -19 -19
-18 -18 -18 -18 -19 -19 -19 -19 -18 -18 -18 -18 -18 -19 -20 -19 -19 -19 -19 -19 -19 -19 -19 -19 -19 -19 -19
-18 -18 -19 -19 -19 -19 -19 -19 -19 -19 -19 -19 -19 -20 -20 -20 -19 -20 -20 -20 -19 -19 -19 -19 -19 -19 -19
-18 -18 -19 -19 -19 -19 -19 -19 -19 -19 -19 -19 -20 -20 -20 -20 -20 -20 -20 -20 -20 -19 -19 -19 -19 -19 -19
-18 -19 -19 -19 -19 -19 -20 -20 -20 -19 -19 -19 -20 -20 -20 -20 -20 -20 -20 -20 -20 -20 -19 -19 -19 -19 -19
-19 -19 -19 -19 -20 -20 -20 -20 -20 -20 -20 -20 -20 -20 -20 -20 -20 -20 -20 -20 -20 -20 -20 -19 -19 -19 -19
-19 -19 -19 -19 -19 -20 -20 -20 -20 -20 -20 -20 -21 -21 -20 -20 -20 -20 -20 -20 -20 -20 -20 -20 -20 -20 -20
-19 -19 -19 -19 -19 -20 -20 -20 -20 -20 -21 -21 -21 -21 -20 -20 -20 -20 -20 -20 -20 -20 -21 -21 -20 -20 -20
-19 -19 -19 -19 -19 -20 -20 -20 -20 -20 -20 -20 -21 -21 -21 -20 -20 -20 -20 -20 -21 -21 -21 -21 -21 -21 -21
-20 -19 -20 -20 -20 -20 -20 -20 -20 -20 -20 -21 -21 -21 -21 -21 -21 -20 -20 -21 -21 -21 -21 -21 -21 -21 -21
-20 -20 -20 -20 -20 -20 -20 -20 -20 -20 -21 -21 -21 -21 -21 -21 -21 -21 -21 -21 -21 -21 -21 -21 -21 -21 -21
-20 -20 -20 -20 -20 -20 -20 -20 -20 -21 -21 -21 -21 -21 -21 -21 -21 -21 -21 -21 -21 -21 -21 -21 -21 -21 -21
-20 -20 -20 -20 -20 -20 -20 -20 -21 -21 -21 -21 -21 -21 -21 -21 -21 -21 -21 -21 -21 -21 -21 -21 -21 -21 -21
-21 -20 -20 -20 -20 -20 -20 -21 -21 -21 -21 -21 -21 -21 -21 -21 -21 -21 -21 -21 -21 -21 -21 -21 -21 -21 -21

GFSFLT2_500_temp_108.txt.gz
Temp
-16 -16 -16 -16 -16 -16 -16 -16 -16 -16 -16 -17 -17 -17 -17 -17 -17 -17 -18 -18 -17 -17 -17 -17 -17 -18 -18
-17 -16 -17 -17 -17 -17 -17 -17 -17 -18 -18 -18 -18 -18 -18 -18 -18 -19 -18 -18 -18 -17 -17 -17 -18 -18 -18
-16 -16 -16 -16 -17 -17 -18 -18 -18 -18 -18 -18 -18 -18 -18 -18 -18 -18 -19 -19 -18 -18 -18 -18 -18 -18 -18
-17 -17 -17 -17 -17 -18 -18 -18 -18 -19 -19 -19 -19 -18 -18 -18 -18 -19 -20 -19 -19 -19 -19 -18 -18 -19 -19
-16 -17 -17 -17 -17 -18 -18 -19 -19 -19 -19 -19 -19 -19 -19 -19 -20 -20 -20 -20 -20 -20 -19 -19 -19 -19 -19
-17 -17 -17 -17 -17 -18 -18 -19 -19 -19 -19 -19 -19 -19 -19 -20 -20 -20 -20 -20 -20 -20 -20 -20 -19 -19 -19
-17 -17 -17 -18 -18 -18 -19 -19 -19 -19 -19 -19 -20 -19 -19 -19 -20 -20 -20 -20 -21 -20 -20 -20 -20 -19 -19
-17 -17 -18 -18 -18 -19 -19 -19 -19 -20 -20 -20 -20 -19 -20 -20 -21 -21 -20 -20 -20 -20 -20 -20 -20 -20 -19
-18 -18 -18 -18 -19 -19 -19 -19 -19 -20 -20 -20 -20 -20 -19 -21 -21 -21 -20 -20 -20 -20 -20 -20 -20 -20 -20
-18 -18 -18 -18 -19 -19 -19 -19 -19 -20 -20 -20 -20 -20 -20 -21 -21 -21 -21 -20 -20 -20 -20 -20 -21 -20 -20
-19 -19 -19 -19 -19 -19 -19 -19 -19 -20 -20 -20 -20 -20 -21 -21 -21 -21 -20 -20 -20 -20 -20 -20 -21 -21 -21
-19 -19 -19 -19 -19 -19 -19 -19 -20 -20 -20 -20 -20 -20 -21 -21 -21 -21 -20 -20 -20 -20 -20 -20 -20 -20 -21
-20 -20 -20 -20 -20 -20 -20 -20 -20 -20 -20 -20 -20 -20 -21 -21 -21 -21 -21 -21 -20 -20 -20 -21 -21 -21 -21
-20 -20 -20 -20 -20 -20 -20 -20 -20 -20 -20 -20 -20 -21 -21 -21 -21 -21 -21 -21 -21 -21 -21 -21 -21 -21 -21
-20 -20 -20 -20 -20 -20 -20 -20 -20 -20 -20 -20 -21 -21 -21 -21 -21 -21 -21 -21 -21 -21 -21 -21 -21 -21 -21
-21 -20 -20 -21 -20 -20 -20 -20 -20 -20 -20 -21 -21 -21 -22 -22 -21 -21 -21 -21 -21 -21 -21 -21 -21 -21 -21
-21 -21 -21 -21 -21 -21 -21 -21 -21 -21 -20 -21 -21 -21 -21 -21 -21 -21 -21 -21 -21 -21 -21 -21 -21 -21 -21

GFSFLT2_500_temp_111.txt.gz
Temp
-15 -15 -15 -15 -16 -16 -16 -16 -16 -17 -17 -18 -18 -18 -18 -18 -18 -18 -18 -18 -17 -18 -18 -18 -18 -17 -17
-15 -15 -15 -16 -16 -16 -16 -17 -17 -17 -18 -18 -18 -18 -18 -18 -18 -18 -18 -18 -18 -18 -19 -19 -18 -18 -17
-15 -16 -15 -16 -16 -16 -16 -17 -17 -17 -18 -18 -19 -18 -19 -19 -19 -18 -18 -19 -19 -20 -19 -20 -18 -18 -18
-16 -16 -16 -16 -16 -16 -16 -17 -17 -17 -18 -18 -19 -19 -19 -19 -19 -19 -19 -19 -19 -19 -19 -20 -19 -19 -19
-16 -16 -16 -16 -16 -16 -16 -17 -17 -18 -18 -19 -19 -19 -19 -19 -19 -19 -20 -20 -20 -19 -19 -18 -20 -20 -19
-17 -17 -17 -17 -17 -17 -17 -17 -17 -18 -18 -19 -19 -19 -19 -19 -20 -20 -20 -21 -21 -21 -21 -21 -21 -20 -20
-17 -17 -17 -17 -17 -17 -17 -17 -18 -18 -18 -19 -19 -19 -20 -20 -20 -20 -20 -22 -22 -21 -21 -20 -20 -21 -21
-17 -17 -18 -18 -17 -17 -17 -18 -18 -19 -19 -19 -19 -20 -20 -20 -20 -20 -20 -21 -21 -21 -20 -20 -20 -21 -20
-18 -18 -18 -18 -18 -18 -18 -18 -18 -19 -19 -19 -20 -20 -20 -20 -20 -20 -20 -21 -20 -20 -20 -20 -20 -20 -20
-18 -18 -18 -18 -19 -19 -19 -18 -19 -19 -19 -19 -20 -20 -20 -20 -20 -21 -20 -21 -21 -21 -21 -21 -20 -20 -20
-19 -19 -19 -19 -19 -19 -19 -19 -19 -19 -19 -19 -20 -20 -20 -20 -21 -21 -21 -21 -21 -21 -21 -20 -20 -20 -20
-19 -19 -19 -19 -20 -20 -20 -19 -20 -20 -20 -20 -20 -20 -20 -20 -20 -21 -21 -21 -21 -21 -20 -20 -20 -20 -20
-20 -20 -20 -20 -20 -20 -20 -20 -20 -20 -20 -20 -20 -20 -20 -20 -20 -21 -21 -21 -21 -21 -21 -21 -20 -20 -20
-20 -20 -20 -20 -20 -20 -20 -20 -20 -21 -21 -21 -20 -20 -20 -20 -21 -21 -21 -21 -21 -21 -21 -21 -21 -21 -21
-21 -21 -21 -21 -21 -21 -21 -21 -21 -20 -20 -20 -20 -20 -20 -20 -21 -21 -21 -21 -21 -21 -21 -21 -21 -21 -21
-21 -21 -21 -21 -21 -21 -21 -21 -21 -21 -21 -20 -20 -21 -21 -21 -21 -21 -22 -22 -22 -21 -21 -21 -21 -21 -21
-21 -21 -21 -21 -21 -21 -21 -21 -21 -21 -21 -21 -21 -21 -21 -21 -21 -21 -22 -22 -22 -22 -22 -22 -21 -21 -21

GFSFLT2_500_temp_114.txt.gz
Temp
-13 -14 -14 -15 -15 -15 -15 -15 -16 -16 -16 -16 -17 -17 -17 -18 -18 -18 -18 -18 -18 -18 -18 -18 -19 -18 -17
-14 -15 -15 -15 -15 -15 -15 -15 -16 -16 -16 -17 -17 -17 -18 -18 -18 -18 -18 -19 -18 -18 -18 -18 -19 -18 -17
-15 -15 -16 -16 -16 -16 -16 -16 -16 -16 -16 -17 -17 -17 -18 -18 -18 -18 -19 -19 -19 -19 -19 -18 -18 -18 -17
-15 -16 -16 -16 -16 -16 -16 -16 -16 -16 -16 -17 -17 -17 -18 -19 -19 -19 -19 -19 -19 -19 -19 -19 -18 -18 -19
-16 -16 -16 -16 -16 -16 -17 -17 -17 -17 -17 -17 -17 -17 -18 -19 -19 -19 -19 -19 -19 -20 -20 -20 -19 -19 -20
-17 -17 -17 -17 -17 -17 -17 -17 -17 -17 -17 -17 -18 -18 -18 -19 -19 -19 -19 -19 -19 -20 -20 -19 -20 -20 -20
-17 -17 -17 -17 -17 -17 -17 -17 -18 -18 -18 -18 -18 -19 -19 -19 -19 -20 -20 -20 -20 -20 -20 -20 -20 -20 -20
-17 -17 -17 -18 -18 -18 -18 -18 -18 -18 -19 -19 -19 -19 -19 -19 -20 -20 -20 -20 -21 -21 -21 -21 -21 -20 -21
-18 -18 -18 -18 -18 -18 -18 -19 -19 -19 -19 -19 -19 -19 -19 -20 -20 -20 -20 -20 -20 -21 -21 -21 -21 -21 -21
-19 -19 -19 -19 -19 -19 -19 -19 -19 -19 -19 -19 -19 -20 -20 -20 -20 -20 -20 -20 -20 -21 -21 -21 -21 -21 -21
-19 -19 -19 -20 -20 -20 -20 -20 -20 -20 -20 -20 -20 -20 -20 -20 -20 -20 -20 -20 -20 -21 -21 -21 -21 -21 -21
-20 -20 -20 -20 -20 -20 -20 -20 -20 -20 -20 -20 -20 -20 -20 -20 -20 -20 -20 -20 -21 -21 -21 -21 -21 -21 -21
-20 -20 -20 -20 -20 -20 -20 -20 -21 -21 -21 -21 -21 -21 -21 -21 -21 -20 -20 -21 -21 -21 -21 -21 -21 -21 -21
-20 -21 -21 -21 -21 -21 -21 -21 -21 -21 -21 -21 -21 -21 -21 -21 -21 -21 -21 -21 -21 -21 -21 -21 -21 -21 -21
-21 -21 -21 -21 -21 -21 -21 -21 -21 -21 -21 -21 -21 -21 -21 -21 -21 -21 -21 -21 -21 -21 -21 -21 -21 -21 -21
-21 -21 -22 -21 -22 -22 -22 -22 -21 -21 -21 -21 -21 -21 -21 -21 -21 -21 -21 -21 -21 -21 -22 -22 -21 -21 -21
-22 -22 -22 -22 -22 -22 -22 -22 -22 -22 -21 -21 -21 -21 -21 -21 -21 -21 -21 -22 -22 -22 -22 -22 -22 -22 -22

GFSFLT2_500_temp_117.txt.gz
Temp
-13 -13 -13 -13 -14 -14 -15 -15 -15 -15 -16 -16 -16 -16 -16 -16 -16 -17 -17 -17 -18 -18 -18 -18 -18 -18 -17
-13 -14 -14 -14 -14 -15 -15 -16 -16 -16 -16 -16 -16 -16 -16 -16 -16 -17 -18 -18 -18 -18 -18 -18 -19 -18 -17
-14 -14 -14 -14 -15 -15 -16 -16 -16 -16 -16 -16 -16 -16 -17 -17 -17 -17 -18 -18 -18 -19 -19 -19 -19 -18 -17
-14 -14 -15 -15 -16 -16 -16 -17 -17 -16 -16 -16 -16 -17 -17 -17 -17 -18 -19 -19 -19 -19 -19 -19 -19 -19 -19
-15 -15 -15 -16 -17 -17 -17 -17 -17 -17 -17 -17 -17 -17 -17 -17 -18 -18 -19 -19 -19 -19 -19 -19 -19 -19 -19
-16 -16 -16 -17 -17 -17 -17 -17 -17 -17 -18 -18 -18 -17 -18 -18 -19 -19 -19 -19 -20 -20 -20 -20 -20 -19 -20
-17 -17 -17 -17 -17 -17 -17 -18 -18 -18 -18 -18 -18 -18 -19 -19 -19 -19 -19 -19 -20 -20 -20 -20 -20 -20 -20
-17 -17 -17 -17 -18 -18 -18 -18 -18 -18 -18 -19 -19 -19 -19 -19 -19 -20 -20 -20 -20 -20 -21 -21 -21 -20 -20
-17 -18 -18 -18 -18 -18 -18 -19 -19 -19 -19 -19 -19 -20 -20 -20 -20 -20 -20 -20 -20 -20 -21 -21 -22 -21 -20
-18 -18 -19 -19 -19 -19 -19 -19 -20 -20 -20 -20 -20 -20 -20 -20 -20 -20 -20 -20 -20 -20 -20 -21 -21 -21 -21
-19 -19 -19 -19 -19 -20 -20 -20 -20 -20 -20 -20 -20 -20 -20 -20 -20 -20 -20 -20 -20 -20 -21 -21 -21 -21 -21
-19 -19 -19 -20 -20 -20 -20 -20 -20 -20 -20 -20 -20 -21 -21 -21 -21 -21 -21 -21 -21 -21 -21 -21 -21 -21 -21
-20 -20 -20 -20 -20 -21 -21 -21 -21 -21 -21 -21 -21 -21 -21 -21 -21 -21 -21 -21 -21 -21 -21 -21 -21 -21 -21
-21 -21 -21 -21 -21 -21 -21 -21 -21 -21 -21 -21 -21 -21 -22 -21 -21 -21 -21 -21 -21 -21 -21 -21 -21 -21 -21
-21 -21 -21 -21 -21 -21 -21 -21 -21 -22 -22 -22 -21 -22 -22 -21 -21 -21 -21 -21 -21 -21 -21 -22 -21 -21 -21
-21 -21 -21 -22 -22 -22 -22 -22 -22 -22 -22 -22 -22 -22 -22 -22 -22 -21 -21 -21 -21 -21 -21 -21 -22 -22 -21
-22 -22 -22 -22 -22 -22 -22 -22 -22 -22 -22 -22 -22 -22 -22 -22 -22 -22 -22 -22 -22 -22 -22 -22 -22 -22 -22

GFSFLT2_500_temp_120.txt.gz
Temp
-13 -13 -13 -13 -13 -13 -14 -14 -14 -14 -15 -16 -16 -16 -16 -16 -16 -16 -16 -17 -17 -17 -17 -17 -18 -18 -18
-13 -13 -13 -13 -14 -14 -14 -14 -14 -15 -16 -16 -16 -16 -16 -16 -16 -16 -17 -17 -17 -17 -17 -17 -18 -18 -18
-14 -14 -14 -14 -14 -14 -14 -14 -15 -16 -16 -17 -17 -17 -17 -17 -17 -17 -17 -17 -17 -17 -18 -18 -18 -18 -19
-14 -14 -14 -14 -15 -15 -15 -15 -15 -16 -17 -17 -17 -17 -17 -17 -17 -17 -17 -17 -17 -18 -18 -18 -18 -18 -19
-14 -14 -15 -15 -15 -15 -15 -16 -16 -17 -17 -17 -17 -17 -17 -18 -18 -18 -18 -18 -18 -18 -19 -19 -19 -19 -19
-15 -15 -15 -15 -15 -16 -16 -17 -17 -17 -17 -17 -17 -18 -18 -18 -18 -18 -18 -19 -18 -19 -19 -19 -19 -19 -20
-16 -16 -16 -16 -16 -17 -17 -17 -17 -18 -18 -18 -18 -18 -19 -19 -19 -19 -19 -19 -19 -19 -20 -20 -20 -20 -20
-16 -16 -17 -17 -17 -17 -17 -17 -18 -18 -18 -18 -18 -19 -19 -19 -19 -19 -19 -20 -20 -20 -20 -20 -20 -20 -20
-17 -18 -18 -18 -18 -18 -18 -18 -18 -18 -18 -18 -19 -20 -20 -20 -20 -20 -20 -20 -20 -20 -21 -21 -21 -21 -21
-18 -18 -18 -18 -18 -19 -19 -19 -19 -19 -19 -19 -20 -20 -20 -20 -20 -20 -20 -20 -20 -20 -20 -21 -21 -21 -21
-19 -19 -19 -19 -19 -19 -19 -19 -19 -19 -20 -20 -20 -20 -20 -20 -20 -20 -20 -21 -21 -21 -21 -21 -21 -20 -21
-19 -19 -19 -19 -20 -20 -20 -20 -20 -20 -20 -20 -20 -20 -20 -20 -21 -21 -21 -21 -21 -21 -21 -21 -21 -21 -21
-20 -20 -20 -20 -20 -20 -20 -20 -20 -21 -21 -21 -21 -21 -21 -21 -21 -21 -21 -22 -22 -21 -21 -21 -21 -21 -22
-21 -21 -21 -21 -21 -20 -20 -21 -21 -21 -21 -21 -21 -21 -21 -21 -21 -21 -22 -22 -22 -22 -21 -21 -21 -21 -22
-21 -21 -21 -21 -21 -21 -21 -21 -21 -21 -22 -22 -22 -22 -22 -22 -22 -22 -22 -22 -22 -22 -21 -21 -21 -22 -22
-22 -22 -21 -21 -21 -21 -21 -22 -22 -22 -22 -22 -22 -22 -22 -22 -22 -22 -22 -22 -22 -22 -21 -21 -21 -22 -22
-22 -22 -22 -22 -22 -22 -22 -22 -22 -22 -22 -22 -22 -22 -22 -22 -22 -22 -22 -22 -22 -22 -22 -22 -22 -22 -22